M I D A S
Marine Information and Data Acquisition System
Tripno 2199 of the Zeeleeuw from 2011-10-17 06:50:59 to 2011-10-17 16:44:45
Back to CruiseResearch ActivitiesStationsMapUnderway DataData graphs

EquipmentUnitsComment
TimeDGPSUTC
LatitudeDGPSDM.mWGS84
LongitudeDGPSDM.mWGS84
TemperatureSBE03/SBE38deg celciusITS90
ConductivitySBE21S/mITS90
SalinitySBE21 Practical Salinity Units
ChlorophylAChelsea fluorimeterg/lCalibrated in Aceton
Missing or incorrect values are displayed as -999
Sea surface data collected by the RV Zeeleeuw from 2011-10-17 06:19:01 to 2011-10-17 16:52:47
                                                                                    Next 1000 lines
Time Latitude Longitude Temperature Conductivity Salinity ChlorophylA
2011-10-17 06:19:10 51°13.634 2°56.016 20.0047 0.014849 0.07452 -3.020363
2011-10-17 06:19:15 51°13.635 2°56.016 20.0046 0.014849 0.074523 -3.020363
2011-10-17 06:19:21 51°13.635 2°56.016 20.0041 0.014849 0.074526 -3.020363
2011-10-17 06:19:25 51°13.635 2°56.016 19.9984 0.014849 0.074526 -3.020363
2011-10-17 06:19:30 51°13.635 2°56.017 19.9937 0.014849 0.074529 -3.020363
2011-10-17 06:19:35 51°13.635 2°56.017 19.9919 0.014849 0.074532 -3.020363
2011-10-17 06:19:40 51°13.635 2°56.017 19.99 0.014849 0.074534 -3.020363
2011-10-17 06:19:45 51°13.635 2°56.016 19.9899 0.014849 0.074537 -3.020363
2011-10-17 06:19:50 51°13.636 2°56.017 19.9905 0.014849 0.07454 -3.020363
2011-10-17 06:19:55 51°13.636 2°56.017 20.0074 0.014849 0.07454 -3.020363
2011-10-17 06:20:00 51°13.636 2°56.017 20.007 0.014849 0.074543 -3.020363
2011-10-17 06:20:05 51°13.636 2°56.017 20.0076 0.014849 0.074546 -3.020363
2011-10-17 06:20:09 51°13.636 2°56.017 20.0049 0.014849 0.074549 -3.020363
2011-10-17 06:20:15 51°13.636 2°56.017 20.0037 0.014849 0.074552 -3.020363
2011-10-17 06:20:21 51°13.635 2°56.016 20.0023 0.014849 0.074555 -3.020363
2011-10-17 06:20:26 51°13.635 2°56.016 20.0019 0.014849 0.074555 -3.020363
2011-10-17 06:20:31 51°13.635 2°56.017 20.0003 0.014849 0.074559 -3.020363
2011-10-17 06:20:36 51°13.635 2°56.017 19.996 0.014849 0.074562 -3.020363
2011-10-17 06:20:41 51°13.635 2°56.017 19.9963 0.014849 0.074564 -3.020363
2011-10-17 06:20:46 51°13.635 2°56.018 19.9959 0.014849 0.074568 -3.020363
2011-10-17 06:20:51 51°13.636 2°56.018 19.9966 0.014849 0.074571 -3.020363
2011-10-17 06:20:56 51°13.636 2°56.018 19.9984 0.014849 0.074571 -3.020363
2011-10-17 06:21:01 51°13.636 2°56.018 20.0028 0.014849 0.074574 -3.020363
2011-10-17 06:21:06 51°13.636 2°56.018 20.0038 0.014849 0.074577 -3.020363
2011-10-17 06:21:11 51°13.636 2°56.017 20.0057 0.014849 0.07458 -3.020363
2011-10-17 06:21:16 51°13.636 2°56.017 20.0054 0.014849 0.074583 -3.020363
2011-10-17 06:21:21 51°13.636 2°56.018 20.0035 0.014849 0.074586 -3.020363
2011-10-17 06:21:26 51°13.636 2°56.018 19.9999 0.014849 0.074586 -3.020363
2011-10-17 06:21:31 51°13.636 2°56.018 19.9986 0.014849 0.074589 -3.020363
2011-10-17 06:21:36 51°13.636 2°56.018 19.9996 0.014849 0.074592 -3.020363
2011-10-17 06:21:41 51°13.636 2°56.018 20.0018 0.014849 0.074595 -3.020363
2011-10-17 06:21:46 51°13.636 2°56.017 20.0017 0.014849 0.074598 -3.020363
2011-10-17 06:21:51 51°13.636 2°56.017 19.9999 0.014849 0.074601 -3.020363
2011-10-17 06:21:56 51°13.636 2°56.018 20.0017 0.014849 0.074601 -3.020363
2011-10-17 06:22:01 51°13.636 2°56.017 20.0011 0.014849 0.074603 -3.020363
2011-10-17 06:22:06 51°13.636 2°56.017 20.0021 0.014849 0.074606 -3.020363
2011-10-17 06:22:11 51°13.636 2°56.017 20.0022 0.014849 0.074609 -3.020363
2011-10-17 06:22:16 51°13.636 2°56.017 20.0013 0.014849 0.074611 -3.020363
2011-10-17 06:22:21 51°13.636 2°56.017 20.0001 0.014849 0.074613 -3.020363
2011-10-17 06:22:25 51°13.636 2°56.017 20.0002 0.014849 0.074613 -3.020363
2011-10-17 06:22:30 51°13.636 2°56.017 19.9996 0.014849 0.074616 -3.020363
2011-10-17 06:22:36 51°13.636 2°56.017 19.9999 0.014849 0.074619 -3.020363
2011-10-17 06:22:41 51°13.636 2°56.017 20.0002 0.014849 0.074621 -3.020363
2011-10-17 06:22:45 51°13.636 2°56.017 19.9984 0.014849 0.074624 -3.020363
2011-10-17 06:22:50 51°13.636 2°56.017 19.9991 0.014849 0.074626 -3.020363
2011-10-17 06:22:56 51°13.636 2°56.016 19.9984 0.014849 0.074626 -3.020363
2011-10-17 06:23:01 51°13.636 2°56.016 19.9971 0.014849 0.074629 -3.020363
2011-10-17 06:23:05 51°13.636 2°56.016 19.9955 0.014849 0.074631 -3.020363
2011-10-17 06:23:10 51°13.636 2°56.016 19.9964 0.014849 0.074633 -3.020363
2011-10-17 06:23:15 51°13.637 2°56.016 19.9953 0.014849 0.074636 -3.020363
2011-10-17 06:23:20 51°13.637 2°56.015 19.9961 0.014849 0.074638 -3.020363
2011-10-17 06:23:25 51°13.637 2°56.015 19.9963 0.014849 0.074638 -3.020363
2011-10-17 06:23:30 51°13.637 2°56.015 19.9954 0.014849 0.074641 -3.020363
2011-10-17 06:23:35 51°13.637 2°56.014 19.9951 0.014849 0.074643 -3.020363
2011-10-17 06:23:40 51°13.637 2°56.014 19.9985 0.014849 0.074645 -3.020363
2011-10-17 06:23:45 51°13.637 2°56.014 19.9983 0.014849 0.074647 -3.020363
2011-10-17 06:23:49 51°13.637 2°56.014 19.9999 0.014849 0.074649 -3.020363
2011-10-17 06:23:54 51°13.637 2°56.014 19.9992 0.014849 0.074649 -3.020363
2011-10-17 06:23:59 51°13.637 2°56.014 20.0104 0.014849 0.074652 -3.020363
2011-10-17 06:24:04 51°13.637 2°56.014 20.0131 0.014849 0.074654 -3.020363
2011-10-17 06:24:09 51°13.637 2°56.014 19.9982 0.014849 0.074655 -3.020363
2011-10-17 06:24:14 51°13.637 2°56.013 20 0.014849 0.074659 -3.020363
2011-10-17 06:24:19 51°13.637 2°56.014 19.9999 0.014849 0.074661 -3.020363
2011-10-17 06:24:24 51°13.637 2°56.014 19.999 0.014849 0.074661 -3.020363
2011-10-17 06:24:29 51°13.637 2°56.014 20.0003 0.014849 0.074663 -3.020363
2011-10-17 06:24:33 51°13.637 2°56.014 20.0009 0.014849 0.074665 -3.020363
2011-10-17 06:24:39 51°13.637 2°56.014 20.0018 0.014746 0.074187 -3.020363
2011-10-17 06:24:44 51°13.637 2°56.014 20.0026 0.014849 0.074669 -3.020363
2011-10-17 06:24:49 51°13.637 2°56.014 20.0031 0.014746 0.074192 -3.020363
2011-10-17 06:24:53 51°13.637 2°56.014 20.0039 0.014746 0.074192 -3.020363
2011-10-17 06:24:58 51°13.637 2°56.014 20.004 0.014849 0.074674 -3.020363
2011-10-17 06:25:03 51°13.637 2°56.014 20.0042 0.014746 0.074195 -3.020363
2011-10-17 06:25:08 51°13.637 2°56.014 20.0039 0.014746 0.074198 -3.020363
2011-10-17 06:25:13 51°13.637 2°56.014 20.0052 0.014746 0.074201 -3.020363
2011-10-17 06:25:18 51°13.637 2°56.014 20.0047 0.014746 0.074202 -3.020363
2011-10-17 06:25:23 51°13.637 2°56.015 20.0038 0.014746 0.074202 -3.020363
2011-10-17 06:25:28 51°13.637 2°56.015 20.0051 0.014746 0.074205 -3.020363
2011-10-17 06:25:33 51°13.637 2°56.015 20.0057 0.014746 0.074207 -3.020363
2011-10-17 06:25:38 51°13.637 2°56.015 20.0065 0.014746 0.074209 -3.020363
2011-10-17 06:25:43 51°13.637 2°56.015 20.0072 0.014746 0.074212 -3.020363
2011-10-17 06:25:48 51°13.637 2°56.015 20.0071 0.014746 0.074215 -3.020363
2011-10-17 06:25:53 51°13.637 2°56.015 20.0031 0.014746 0.074215 -3.020363
2011-10-17 06:25:57 51°13.637 2°56.015 20.0068 0.014746 0.074217 -3.020363
2011-10-17 06:26:03 51°13.637 2°56.015 20.0045 0.014746 0.07422 -3.020363
2011-10-17 06:26:08 51°13.637 2°56.015 20.0075 0.014746 0.074221 -3.020363
2011-10-17 06:26:13 51°13.637 2°56.015 20.0054 0.014746 0.074224 -3.020363
2011-10-17 06:26:17 51°13.637 2°56.015 20.0064 0.014746 0.074228 -3.020363
2011-10-17 06:26:22 51°13.637 2°56.015 20.0045 0.014746 0.074228 -3.020363
2011-10-17 06:26:28 51°13.637 2°56.015 20.0071 0.014746 0.07423 -3.020363
2011-10-17 06:26:33 51°13.637 2°56.015 19.9988 0.014746 0.074233 -3.020363
2011-10-17 06:26:38 51°13.637 2°56.015 20.0059 0.014746 0.074235 -3.020363
2011-10-17 06:26:43 51°13.637 2°56.015 20.0059 0.014746 0.074239 -3.020363
2011-10-17 06:26:48 51°13.637 2°56.016 20.0107 0.014746 0.074241 -3.020363
2011-10-17 06:26:53 51°13.637 2°56.016 20.0108 0.014746 0.074241 -3.020363
2011-10-17 06:26:58 51°13.637 2°56.016 20.0129 0.014746 0.074244 -3.020363
2011-10-17 06:27:03 51°13.637 2°56.015 20.0131 0.014746 0.074247 -3.020363
2011-10-17 06:27:08 51°13.637 2°56.015 20.0122 0.014746 0.07425 -3.020363
2011-10-17 06:27:13 51°13.637 2°56.015 20.0124 0.014746 0.074252 -3.020363
2011-10-17 06:27:18 51°13.637 2°56.015 20.0117 0.014746 0.074256 -3.020363
2011-10-17 06:27:23 51°13.637 2°56.015 20.0121 0.014746 0.074256 -3.020363
2011-10-17 06:27:28 51°13.637 2°56.015 20.0121 0.014746 0.074259 -3.020363
2011-10-17 06:27:33 51°13.637 2°56.015 20.0131 0.014746 0.074261 -3.020363
2011-10-17 06:27:38 51°13.637 2°56.015 20.0147 0.014746 0.074264 -3.020363
2011-10-17 06:27:43 51°13.637 2°56.015 20.0151 0.014746 0.074268 -3.020363
2011-10-17 06:27:48 51°13.637 2°56.015 20.0166 0.014746 0.074271 -3.020363
2011-10-17 06:27:53 51°13.637 2°56.015 20.0181 0.014746 0.074271 -3.020363
2011-10-17 06:27:58 51°13.637 2°56.015 20.0196 0.014746 0.074274 -3.020363
2011-10-17 06:28:03 51°13.637 2°56.015 20.0206 0.014746 0.074278 -3.020363
2011-10-17 06:28:08 51°13.637 2°56.016 20.0204 0.014746 0.07428 -3.020363
2011-10-17 06:28:13 51°13.637 2°56.016 20.0199 0.014746 0.074284 -3.020363
2011-10-17 06:28:17 51°13.637 2°56.016 20.0197 0.014746 0.074288 -3.020363
2011-10-17 06:28:23 51°13.637 2°56.016 20.0171 0.014746 0.074288 -3.020363
2011-10-17 06:28:28 51°13.637 2°56.016 20.0176 0.014746 0.074291 -3.020363
2011-10-17 06:28:33 51°13.637 2°56.016 20.0179 0.014746 0.074294 -3.020363
2011-10-17 06:28:37 51°13.637 2°56.016 20.0175 0.014746 0.074298 -3.020363
2011-10-17 06:28:43 51°13.637 2°56.016 20.0174 0.014746 0.0743 -3.020363
2011-10-17 06:28:48 51°13.637 2°56.016 20.0163 0.014746 0.074304 -3.020363
2011-10-17 06:28:53 51°13.637 2°56.016 20.0168 0.014746 0.074304 -3.020363
2011-10-17 06:28:58 51°13.637 2°56.016 20.0166 0.014746 0.074308 -3.020363
2011-10-17 06:29:03 51°13.637 2°56.016 20.0171 0.014746 0.074311 -3.020363
2011-10-17 06:29:08 51°13.637 2°56.016 20.0191 0.014746 0.074314 -3.020363
2011-10-17 06:29:13 51°13.637 2°56.016 20.0196 0.014746 0.074318 -3.020363
2011-10-17 06:29:18 51°13.637 2°56.016 20.0209 0.014746 0.07432 -3.020363
2011-10-17 06:29:23 51°13.637 2°56.016 20.0218 0.014746 0.07432 -3.020363
2011-10-17 06:29:28 51°13.637 2°56.016 20.0234 0.014746 0.074324 -3.020363
2011-10-17 06:29:33 51°13.637 2°56.016 20.0246 0.014746 0.074327 -3.020363
2011-10-17 06:29:38 51°13.637 2°56.016 20.0251 0.014746 0.07433 -3.020363
2011-10-17 06:29:43 51°13.637 2°56.016 20.0235 0.014746 0.074334 -3.020363
2011-10-17 06:29:48 51°13.637 2°56.016 20.0248 0.014746 0.074337 -3.020363
2011-10-17 06:29:53 51°13.637 2°56.016 20.0261 0.014746 0.074337 -3.020363
2011-10-17 06:29:58 51°13.637 2°56.016 20.024 0.014746 0.07434 -3.020363
2011-10-17 06:30:03 51°13.637 2°56.016 20.0244 0.014746 0.074343 -3.020363
2011-10-17 06:30:08 51°13.637 2°56.016 20.0242 0.014746 0.074347 -3.020363
2011-10-17 06:30:13 51°13.637 2°56.016 20.0247 0.014746 0.07435 -3.020363
2011-10-17 06:30:17 51°13.637 2°56.016 20.0265 0.014746 0.074353 -3.020363
2011-10-17 06:30:23 51°13.637 2°56.016 20.0277 0.014746 0.074353 -3.020363
2011-10-17 06:30:28 51°13.637 2°56.016 20.0289 0.014746 0.074356 -3.020363
2011-10-17 06:30:33 51°13.637 2°56.016 20.0282 0.014746 0.074359 -3.020363
2011-10-17 06:30:38 51°13.637 2°56.016 20.0291 0.014746 0.074362 -3.020363
2011-10-17 06:30:43 51°13.637 2°56.016 20.0288 0.014746 0.074365 -3.020363
2011-10-17 06:30:48 51°13.637 2°56.016 20.029 0.014746 0.074368 -3.020363
2011-10-17 06:30:53 51°13.637 2°56.016 20.0278 0.014746 0.074368 -3.020363
2011-10-17 06:30:58 51°13.637 2°56.016 20.0257 0.014746 0.07437 -3.020363
2011-10-17 06:31:03 51°13.637 2°56.016 20.0275 0.014746 0.074374 -3.020363
2011-10-17 06:31:08 51°13.637 2°56.016 20.0287 0.014746 0.074377 -3.020363
2011-10-17 06:31:13 51°13.637 2°56.016 20.0295 0.014746 0.07438 -3.020363
2011-10-17 06:31:17 51°13.637 2°56.015 20.0294 0.014746 0.074383 -3.020363
2011-10-17 06:31:23 51°13.637 2°56.015 20.0284 0.014746 0.074383 -3.020363
2011-10-17 06:31:28 51°13.637 2°56.016 20.0287 0.014746 0.074386 -3.020363
2011-10-17 06:31:33 51°13.637 2°56.016 20.0282 0.014746 0.07439 -3.020363
2011-10-17 06:31:38 51°13.637 2°56.016 20.0278 0.014746 0.074392 -3.020363
2011-10-17 06:31:43 51°13.637 2°56.016 20.0271 0.014746 0.074396 -3.020363
2011-10-17 06:31:48 51°13.637 2°56.016 20.0298 0.014746 0.074399 -3.020363
2011-10-17 06:31:53 51°13.637 2°56.016 20.0309 0.014746 0.074399 -3.020363
2011-10-17 06:31:58 51°13.638 2°56.016 20.034 0.014746 0.074403 -3.020363
2011-10-17 06:32:03 51°13.638 2°56.016 20.0342 0.014746 0.074406 -3.020363
2011-10-17 06:32:08 51°13.638 2°56.016 20.0349 0.014746 0.074409 -3.020363
2011-10-17 06:32:13 51°13.638 2°56.016 20.0344 0.014746 0.074412 -3.020363
2011-10-17 06:32:18 51°13.638 2°56.016 20.0349 0.014746 0.074415 -3.020363
2011-10-17 06:32:23 51°13.638 2°56.016 20.0346 0.014746 0.074415 -3.020363
2011-10-17 06:32:28 51°13.638 2°56.016 20.0349 0.014746 0.074418 -3.020363
2011-10-17 06:32:33 51°13.638 2°56.016 20.0346 0.014746 0.074422 -3.020363
2011-10-17 06:32:38 51°13.638 2°56.016 20.0348 0.014746 0.074424 -3.020363
2011-10-17 06:32:43 51°13.638 2°56.016 20.0342 0.014746 0.074428 -3.020363
2011-10-17 06:32:48 51°13.638 2°56.016 20.034 0.014746 0.074431 -3.020363
2011-10-17 06:32:53 51°13.638 2°56.016 20.034 0.014746 0.074431 -3.020363
2011-10-17 06:32:58 51°13.638 2°56.016 20.0343 0.014746 0.074434 -3.020363
2011-10-17 06:33:03 51°13.638 2°56.016 20.0335 0.014746 0.074437 -3.020363
2011-10-17 06:33:08 51°13.638 2°56.016 20.0344 0.014746 0.074441 -3.020363
2011-10-17 06:33:13 51°13.638 2°56.016 20.0352 0.014746 0.074444 -3.020363
2011-10-17 06:33:18 51°13.638 2°56.016 20.0352 0.014746 0.074447 -3.020363
2011-10-17 06:33:23 51°13.637 2°56.016 20.0346 0.014746 0.074447 -3.020363
2011-10-17 06:33:28 51°13.637 2°56.016 20.0324 0.014746 0.074451 -3.020363
2011-10-17 06:33:33 51°13.637 2°56.016 20.0317 0.014746 0.074454 -3.020363
2011-10-17 06:33:38 51°13.637 2°56.016 20.0306 0.014746 0.074457 -3.020363
2011-10-17 06:33:43 51°13.637 2°56.016 20.0307 0.014746 0.07446 -3.020363
2011-10-17 06:33:48 51°13.637 2°56.016 20.0278 0.014746 0.074463 -3.020363
2011-10-17 06:33:53 51°13.637 2°56.016 20.0291 0.014746 0.074463 -3.020363
2011-10-17 06:33:58 51°13.637 2°56.016 20.0291 0.014746 0.074466 -3.020363
2011-10-17 06:34:03 51°13.637 2°56.016 20.0318 0.014746 0.074469 -3.020363
2011-10-17 06:34:08 51°13.637 2°56.016 20.0353 0.014746 0.074473 -3.020363
2011-10-17 06:34:13 51°13.637 2°56.016 20.0384 0.014746 0.074476 -3.020363
2011-10-17 06:34:18 51°13.637 2°56.016 20.0409 0.014746 0.074477 -3.020363
2011-10-17 06:34:23 51°13.637 2°56.016 20.0411 0.014746 0.074477 -3.020363
2011-10-17 06:34:28 51°13.637 2°56.016 20.0406 0.014746 0.074481 -3.020363
2011-10-17 06:34:33 51°13.637 2°56.015 20.0408 0.014746 0.074484 -3.020363
2011-10-17 06:34:37 51°13.637 2°56.015 20.0428 0.014746 0.074487 -3.020363
2011-10-17 06:34:43 51°13.637 2°56.015 20.0429 0.014746 0.074488 -3.020363
2011-10-17 06:34:48 51°13.637 2°56.015 20.045 0.014746 0.074492 -3.020363
2011-10-17 06:34:53 51°13.637 2°56.015 20.0453 0.014746 0.074492 -3.020363
2011-10-17 06:34:58 51°13.637 2°56.015 20.0452 0.014746 0.074495 -3.020363
2011-10-17 06:35:03 51°13.637 2°56.015 20.0457 0.014746 0.074498 -3.020363
2011-10-17 06:35:08 51°13.637 2°56.015 20.0459 0.014746 0.074499 -3.020363
2011-10-17 06:35:13 51°13.638 2°56.015 20.0473 0.014746 0.074501 -3.020363
2011-10-17 06:35:18 51°13.638 2°56.016 20.0496 0.014746 0.074505 -3.020363
2011-10-17 06:35:23 51°13.638 2°56.016 20.05 0.014746 0.074505 -3.020363
2011-10-17 06:35:28 51°13.638 2°56.016 20.0513 0.014746 0.074507 -3.020363
2011-10-17 06:35:33 51°13.637 2°56.016 20.0502 0.014746 0.07451 -3.020363
2011-10-17 06:35:37 51°13.637 2°56.016 20.0495 0.014746 0.074511 -3.020363
2011-10-17 06:35:43 51°13.637 2°56.016 20.0493 0.014746 0.074514 -3.020363
2011-10-17 06:35:48 51°13.637 2°56.016 20.0504 0.014746 0.074517 -3.020363
2011-10-17 06:35:53 51°13.637 2°56.016 20.049 0.014746 0.074517 -3.020363
2011-10-17 06:35:58 51°13.637 2°56.016 20.049 0.014746 0.07452 -3.020363
2011-10-17 06:36:03 51°13.637 2°56.016 20.0497 0.014746 0.074521 -3.020363
2011-10-17 06:36:08 51°13.637 2°56.015 20.0493 0.014746 0.074523 -3.020363
2011-10-17 06:36:13 51°13.637 2°56.015 20.0496 0.014746 0.074526 -3.020363
2011-10-17 06:36:18 51°13.637 2°56.015 20.0528 0.014746 0.074529 -3.020363
2011-10-17 06:36:23 51°13.637 2°56.015 20.0537 0.014746 0.074529 -3.020363
2011-10-17 06:36:28 51°13.637 2°56.015 20.0543 0.014746 0.074531 -3.020363
2011-10-17 06:36:33 51°13.637 2°56.015 20.0557 0.014746 0.074533 -3.020363
2011-10-17 06:36:38 51°13.637 2°56.015 20.0566 0.014746 0.074535 -3.020363
2011-10-17 06:36:43 51°13.637 2°56.015 20.0551 0.014746 0.074538 -3.020363
2011-10-17 06:36:48 51°13.637 2°56.016 20.0537 0.014746 0.074541 -3.020363
2011-10-17 06:36:53 51°13.637 2°56.016 20.0525 0.014746 0.074541 -3.020363
2011-10-17 06:36:57 51°13.637 2°56.016 20.0521 0.014746 0.074543 -3.020363
2011-10-17 06:37:03 51°13.637 2°56.016 20.0515 0.014746 0.074545 -3.020363
2011-10-17 06:37:08 51°13.637 2°56.016 20.0509 0.014746 0.074548 -3.020363
2011-10-17 06:37:13 51°13.637 2°56.016 20.0513 0.014746 0.07455 -3.020363
2011-10-17 06:37:17 51°13.637 2°56.016 20.0504 0.014746 0.074553 -3.020363
2011-10-17 06:37:23 51°13.637 2°56.016 20.0496 0.014746 0.074553 -3.020363
2011-10-17 06:37:28 51°13.637 2°56.016 20.0524 0.014746 0.074555 -3.020363
2011-10-17 06:37:33 51°13.637 2°56.016 20.0553 0.014746 0.074557 -3.020363
2011-10-17 06:37:38 51°13.637 2°56.016 20.0556 0.014746 0.07456 -3.020363
2011-10-17 06:37:43 51°13.637 2°56.016 20.0562 0.014746 0.074562 -3.020363
2011-10-17 06:37:48 51°13.637 2°56.016 20.0569 0.014643 0.074081 -3.020363
2011-10-17 06:37:53 51°13.637 2°56.016 20.0564 0.014643 0.074081 -3.020363
2011-10-17 06:37:58 51°13.637 2°56.016 20.0551 0.014643 0.074083 -3.020363
2011-10-17 06:38:03 51°13.637 2°56.015 20.0562 0.014643 0.074086 -3.020363
2011-10-17 06:38:08 51°13.636 2°56.015 20.0564 0.014643 0.074088 -3.020363
2011-10-17 06:38:13 51°13.636 2°56.015 20.0568 0.014643 0.07409 -3.020363
2011-10-17 06:38:18 51°13.636 2°56.016 20.0563 0.014643 0.074093 -3.020363
2011-10-17 06:38:23 51°13.636 2°56.016 20.0557 0.014643 0.074093 -3.020363
2011-10-17 06:38:28 51°13.637 2°56.016 20.0557 0.014643 0.074095 -3.020363
2011-10-17 06:38:33 51°13.637 2°56.016 20.0565 0.014643 0.074098 -3.020363
2011-10-17 06:38:38 51°13.637 2°56.016 20.0568 0.014746 0.074584 -3.020363
2011-10-17 06:38:43 51°13.637 2°56.016 20.0587 0.014643 0.074102 -3.020363
2011-10-17 06:38:48 51°13.637 2°56.016 20.0577 0.014643 0.074106 -3.020363
2011-10-17 06:38:53 51°13.637 2°56.016 20.0597 0.014643 0.074106 -3.020363
2011-10-17 06:38:57 51°13.637 2°56.016 20.058 0.014643 0.074107 -3.020363
2011-10-17 06:39:03 51°13.636 2°56.015 20.058 0.014643 0.07411 -3.020363
2011-10-17 06:39:08 51°13.634 2°56.013 20.0583 0.014643 0.074112 -3.020363
2011-10-17 06:39:13 51°13.632 2°56.013 20.0578 0.014643 0.074116 -3.020363
2011-10-17 06:39:18 51°13.632 2°56.013 20.0589 0.014643 0.074118 -3.020363
2011-10-17 06:39:23 51°13.632 2°56.013 20.0593 0.014643 0.074118 -3.020363
2011-10-17 06:39:28 51°13.633 2°56.014 20.0585 0.014643 0.07412 -3.020363
2011-10-17 06:39:33 51°13.634 2°56.015 20.0594 0.014643 0.074122 -3.020363
2011-10-17 06:39:37 51°13.635 2°56.015 20.0581 0.014643 0.074124 -3.020363
2011-10-17 06:39:43 51°13.635 2°56.015 20.0588 0.014643 0.074127 -3.020363
2011-10-17 06:39:48 51°13.636 2°56.015 20.0602 0.014643 0.07413 -3.020363
2011-10-17 06:39:53 51°13.636 2°56.016 20.0615 0.014643 0.07413 -3.020363
2011-10-17 06:39:57 51°13.636 2°56.016 20.0631 0.014643 0.074131 -3.020363
2011-10-17 06:40:03 51°13.637 2°56.017 20.0637 0.014643 0.074134 -3.020363
2011-10-17 06:40:08 51°13.637 2°56.017 20.0637 0.014643 0.074136 -3.020363
2011-10-17 06:40:13 51°13.636 2°56.016 20.0646 0.014643 0.074139 -3.020363
2011-10-17 06:40:18 51°13.635 2°56.015 20.0645 0.014643 0.074141 -3.020363
2011-10-17 06:40:22 51°13.634 2°56.014 20.0652 0.014643 0.074141 -3.020363
2011-10-17 06:40:28 51°13.633 2°56.013 20.0654 0.014643 0.074143 -3.020363
2011-10-17 06:40:33 51°13.632 2°56.013 20.0658 0.014643 0.074144 -3.020363
2011-10-17 06:40:38 51°13.633 2°56.013 20.0661 0.014643 0.074147 -3.020363
2011-10-17 06:40:43 51°13.633 2°56.014 20.065 0.014643 0.07415 -3.020363
2011-10-17 06:40:48 51°13.634 2°56.014 20.0659 0.014643 0.074151 -3.020363
2011-10-17 06:40:53 51°13.635 2°56.014 20.0667 0.014643 0.074151 -3.020363
2011-10-17 06:40:58 51°13.635 2°56.015 20.067 0.014643 0.074153 -3.020363
2011-10-17 06:41:03 51°13.635 2°56.015 20.0704 0.014643 0.074155 -3.020363
2011-10-17 06:41:08 51°13.635 2°56.015 20.0721 0.014643 0.074158 -3.020363
2011-10-17 06:41:13 51°13.635 2°56.014 20.0731 0.014643 0.074159 -3.020363
2011-10-17 06:41:18 51°13.635 2°56.014 20.0747 0.014643 0.074161 -3.020363
2011-10-17 06:41:23 51°13.634 2°56.014 20.0759 0.014643 0.074161 -3.020363
2011-10-17 06:41:28 51°13.634 2°56.014 20.0769 0.014643 0.074163 -3.020363
2011-10-17 06:41:33 51°13.634 2°56.014 20.0768 0.014643 0.074165 -3.020363
2011-10-17 06:41:38 51°13.634 2°56.014 20.076 0.014643 0.074167 -3.020363
2011-10-17 06:41:43 51°13.634 2°56.014 20.0764 0.014643 0.074169 -3.020363
2011-10-17 06:41:48 51°13.634 2°56.014 20.0755 0.014643 0.074171 -3.020363
2011-10-17 06:41:53 51°13.634 2°56.014 20.0742 0.014643 0.074171 -3.020363
2011-10-17 06:41:58 51°13.635 2°56.014 20.0744 0.014643 0.074173 -3.020363
2011-10-17 06:42:03 51°13.635 2°56.015 20.0745 0.014643 0.074174 -3.020363
2011-10-17 06:42:08 51°13.635 2°56.015 20.0765 0.014643 0.074176 -3.020363
2011-10-17 06:42:13 51°13.635 2°56.015 20.0782 0.014643 0.074178 -3.020363
2011-10-17 06:42:18 51°13.635 2°56.015 20.0806 0.014643 0.07418 -3.020363
2011-10-17 06:42:23 51°13.635 2°56.015 20.0829 0.014643 0.07418 -3.020363
2011-10-17 06:42:28 51°13.635 2°56.015 20.0834 0.014643 0.074182 -3.020363
2011-10-17 06:42:33 51°13.635 2°56.015 20.0839 0.014643 0.074184 -3.020363
2011-10-17 06:42:38 51°13.635 2°56.014 20.0839 0.014643 0.074185 -3.020363
2011-10-17 06:42:43 51°13.635 2°56.014 20.0851 0.014643 0.074187 -3.020363
2011-10-17 06:42:48 51°13.635 2°56.014 20.0863 0.014643 0.074189 -3.020363
2011-10-17 06:42:53 51°13.635 2°56.014 20.0856 0.014643 0.074189 -3.020363
2011-10-17 06:42:58 51°13.636 2°56.014 20.0853 0.014643 0.074191 -3.020363
2011-10-17 06:43:03 51°13.636 2°56.014 20.0856 0.014643 0.074193 -3.020363
2011-10-17 06:43:08 51°13.636 2°56.014 20.0864 0.014643 0.074195 -3.020363
2011-10-17 06:43:13 51°13.636 2°56.015 20.0864 0.014643 0.074196 -3.020363
2011-10-17 06:43:18 51°13.636 2°56.015 20.0869 0.014643 0.074198 -3.020363
2011-10-17 06:43:23 51°13.636 2°56.015 20.0863 0.014643 0.074198 -3.020363
2011-10-17 06:43:28 51°13.636 2°56.015 20.0867 0.014643 0.074201 -3.020363
2011-10-17 06:43:33 51°13.636 2°56.015 20.0861 0.014643 0.074203 -3.020363
2011-10-17 06:43:37 51°13.636 2°56.015 20.0869 0.014643 0.074206 -3.020363
2011-10-17 06:43:43 51°13.636 2°56.015 20.0868 0.014643 0.074208 -3.020363
2011-10-17 06:43:48 51°13.636 2°56.015 20.0872 0.014643 0.074211 -3.020363
2011-10-17 06:43:53 51°13.636 2°56.015 20.0893 0.014643 0.074211 -3.020363
2011-10-17 06:43:58 51°13.636 2°56.015 20.0891 0.014643 0.074214 -3.020363
2011-10-17 06:44:03 51°13.636 2°56.015 20.0885 0.014643 0.074216 -3.020363
2011-10-17 06:44:08 51°13.636 2°56.015 20.0885 0.014643 0.074218 -3.020363
2011-10-17 06:44:13 51°13.637 2°56.016 20.0875 0.014643 0.07422 -3.020363
2011-10-17 06:44:18 51°13.637 2°56.016 20.0887 0.014643 0.074223 -3.020363
2011-10-17 06:44:23 51°13.636 2°56.016 20.0903 0.014643 0.074223 -3.020363
2011-10-17 06:44:28 51°13.636 2°56.015 20.0917 0.014643 0.074226 -3.020363
2011-10-17 06:44:33 51°13.636 2°56.015 20.0926 0.014643 0.074228 -3.020363
2011-10-17 06:44:38 51°13.636 2°56.015 20.0933 0.014643 0.074231 -3.020363
2011-10-17 06:44:43 51°13.636 2°56.015 20.0959 0.014643 0.074234 -3.020363
2011-10-17 06:44:48 51°13.637 2°56.015 20.0946 0.014643 0.074237 -3.020363
2011-10-17 06:44:53 51°13.637 2°56.015 20.0967 0.014643 0.074237 -3.020363
2011-10-17 06:44:58 51°13.637 2°56.015 20.0958 0.014643 0.074239 -3.020363
2011-10-17 06:45:03 51°13.637 2°56.015 20.0962 0.014643 0.074242 -3.020363
2011-10-17 06:45:08 51°13.637 2°56.015 20.097 0.014643 0.074245 -3.020363
2011-10-17 06:45:13 51°13.637 2°56.015 20.097 0.014643 0.074248 -3.020363
2011-10-17 06:45:18 51°13.637 2°56.015 20.0973 0.014643 0.07425 -3.020363
2011-10-17 06:45:23 51°13.637 2°56.015 20.0961 0.014643 0.07425 -3.020363
2011-10-17 06:45:28 51°13.637 2°56.015 20.0966 0.014643 0.074253 -3.020363
2011-10-17 06:45:33 51°13.637 2°56.015 20.0977 0.014643 0.074256 -3.020363
2011-10-17 06:45:38 51°13.638 2°56.015 20.0987 0.014643 0.074259 -3.020363
2011-10-17 06:45:43 51°13.638 2°56.015 20.0988 0.014643 0.074262 -3.020363
2011-10-17 06:45:48 51°13.638 2°56.015 20.0974 0.014643 0.074264 -3.020363
2011-10-17 06:45:53 51°13.638 2°56.016 20.0984 0.014643 0.074264 -3.020363
2011-10-17 06:45:57 51°13.638 2°56.016 20.099 0.014643 0.074267 -3.020363
2011-10-17 06:46:03 51°13.638 2°56.016 20.0988 0.014643 0.074271 -3.020363
2011-10-17 06:46:08 51°13.638 2°56.016 20.0956 0.014643 0.074273 -3.020363
2011-10-17 06:46:13 51°13.638 2°56.016 20.0974 0.014643 0.074276 -3.020363
2011-10-17 06:46:18 51°13.638 2°56.016 20.0993 0.014643 0.074278 -3.020363
2011-10-17 06:46:23 51°13.638 2°56.016 20.1 0.014643 0.074278 -3.020363
2011-10-17 06:46:28 51°13.638 2°56.016 20.0995 0.014643 0.074282 -3.020363
2011-10-17 06:46:33 51°13.638 2°56.016 20.1002 0.014643 0.074284 -3.020363
2011-10-17 06:46:37 51°13.639 2°56.016 20.1009 0.014643 0.074287 -3.020363
2011-10-17 06:46:43 51°13.638 2°56.016 20.1024 0.014643 0.07429 -3.020363
2011-10-17 06:46:48 51°13.638 2°56.016 20.1035 0.014643 0.074292 -3.020363
2011-10-17 06:46:53 51°13.638 2°56.016 20.1039 0.014643 0.074292 -3.020363
2011-10-17 06:46:58 51°13.639 2°56.016 20.1028 0.014643 0.074295 -3.020363
2011-10-17 06:47:03 51°13.639 2°56.016 20.1023 0.014643 0.074298 -3.020363
2011-10-17 06:47:08 51°13.638 2°56.016 20.1025 0.014643 0.0743 -3.020363
2011-10-17 06:47:13 51°13.639 2°56.016 20.1059 0.014643 0.074303 -3.020363
2011-10-17 06:47:18 51°13.639 2°56.016 20.1058 0.014643 0.074306 -3.020363
2011-10-17 06:47:23 51°13.639 2°56.016 20.1077 0.014643 0.074306 -3.020363
2011-10-17 06:47:28 51°13.639 2°56.016 20.1089 0.014643 0.074307 -3.020363
2011-10-17 06:47:33 51°13.639 2°56.016 20.1112 0.014643 0.07431 -3.020363
2011-10-17 06:47:38 51°13.639 2°56.016 20.1146 0.014643 0.074313 -3.020363
2011-10-17 06:47:43 51°13.639 2°56.016 20.1139 0.014643 0.074316 -3.020363
2011-10-17 06:47:48 51°13.64 2°56.016 20.1317 0.014643 0.074319 -3.020363
2011-10-17 06:47:53 51°13.64 2°56.016 20.1362 0.014643 0.074319 -3.020363
2011-10-17 06:47:58 51°13.64 2°56.016 20.1297 0.014643 0.074321 -3.020363
2011-10-17 06:48:03 51°13.64 2°56.016 20.1365 0.014643 0.074325 -3.020363
2011-10-17 06:48:08 51°13.64 2°56.016 20.14 0.014643 0.074328 -3.020363
2011-10-17 06:48:13 51°13.64 2°56.016 20.1114 0.014643 0.074331 -3.020363
2011-10-17 06:48:17 51°13.64 2°56.016 20.1151 0.014643 0.074333 -3.020363
2011-10-17 06:48:23 51°13.64 2°56.016 20.1077 0.014643 0.074333 -3.020363
2011-10-17 06:48:28 51°13.64 2°56.016 20.1313 0.014643 0.074337 -3.020363
2011-10-17 06:48:33 51°13.64 2°56.016 20.1134 0.014643 0.074341 -3.020363
2011-10-17 06:48:37 51°13.64 2°56.016 20.1179 0.014643 0.074344 -3.020363
2011-10-17 06:48:42 51°13.64 2°56.016 20.1361 0.014643 0.074347 -3.020363
2011-10-17 06:48:48 51°13.64 2°56.016 20.1284 0.014643 0.074351 -3.020363
2011-10-17 06:48:53 51°13.64 2°56.016 20.1429 0.014643 0.074351 -3.020363
2011-10-17 06:48:58 51°13.64 2°56.017 20.1227 0.014643 0.074354 -3.020363
2011-10-17 06:49:03 51°13.64 2°56.017 20.0986 0.014643 0.074358 -3.020363
2011-10-17 06:49:08 51°13.64 2°56.017 20.0909 0.014643 0.074362 -3.020363
2011-10-17 06:49:13 51°13.64 2°56.017 20.1115 0.014643 0.074366 -3.020363
2011-10-17 06:49:18 51°13.64 2°56.017 20.129 0.014643 0.074369 -3.020363
2011-10-17 06:49:23 51°13.64 2°56.017 20.1371 0.014643 0.074369 -3.020363
2011-10-17 06:49:28 51°13.64 2°56.017 20.1359 0.014643 0.074372 -3.020363
2011-10-17 06:49:33 51°13.64 2°56.017 20.1351 0.014643 0.074376 -3.020363
2011-10-17 06:49:38 51°13.64 2°56.017 20.1335 0.014643 0.074379 -3.020363
2011-10-17 06:49:43 51°13.64 2°56.017 20.1324 0.014643 0.074383 -3.020363
2011-10-17 06:49:48 51°13.639 2°56.016 20.1351 0.014643 0.074387 -3.020363
2011-10-17 06:49:53 51°13.639 2°56.016 20.1398 0.014643 0.074387 -3.020363
2011-10-17 06:49:58 51°13.639 2°56.017 20.1317 0.014643 0.07439 -3.020363
2011-10-17 06:50:03 51°13.639 2°56.017 20.155 0.014643 0.074393 -3.020363
2011-10-17 06:50:08 51°13.64 2°56.017 20.1603 0.014643 0.074398 -3.020363
2011-10-17 06:50:13 51°13.64 2°56.017 20.1584 0.014643 0.074401 -3.020363
2011-10-17 06:50:17 51°13.64 2°56.017 20.1439 0.014643 0.074404 -3.020363
2011-10-17 06:50:23 51°13.641 2°56.017 20.1308 0.014643 0.074404 -3.020363
2011-10-17 06:50:28 51°13.641 2°56.017 20.1237 0.014643 0.074408 -3.020363
2011-10-17 06:50:33 51°13.641 2°56.017 20.123 0.014643 0.074412 -3.020363
2011-10-17 06:50:37 51°13.641 2°56.017 20.127 0.014643 0.074415 -3.020363
2011-10-17 06:50:43 51°13.641 2°56.017 20.1283 0.014643 0.074418 -3.020363
2011-10-17 06:50:48 51°13.641 2°56.017 20.1326 0.014643 0.074422 -3.020363
2011-10-17 06:50:53 51°13.641 2°56.017 20.1314 0.014643 0.074422 -3.020363
2011-10-17 06:50:57 51°13.641 2°56.017 20.1357 0.014643 0.074426 -3.020363
2011-10-17 06:51:02 51°13.641 2°56.017 20.1325 0.014643 0.074428 -3.020363
2011-10-17 06:51:08 51°13.64 2°56.016 20.1422 0.014643 0.074432 -3.020363
2011-10-17 06:51:13 51°13.64 2°56.016 20.1457 0.014643 0.074435 -3.020363
2011-10-17 06:51:17 51°13.64 2°56.016 20.1357 0.014643 0.074438 -3.020363
2011-10-17 06:51:23 51°13.639 2°56.016 20.1425 0.014643 0.074438 -3.020363
2011-10-17 06:51:28 51°13.639 2°56.016 20.154 0.014643 0.074441 -3.020363
2011-10-17 06:51:33 51°13.639 2°56.016 20.1344 0.014643 0.074443 -3.020363
2011-10-17 06:51:38 51°13.639 2°56.016 20.1664 0.01454 0.07396 -3.020363
2011-10-17 06:51:43 51°13.639 2°56.016 20.1384 0.014643 0.074449 -3.020363
2011-10-17 06:51:48 51°13.639 2°56.016 20.1147 0.014643 0.074452 -3.020363
2011-10-17 06:51:53 51°13.64 2°56.016 20.1074 0.014643 0.074452 -3.020363
2011-10-17 06:51:58 51°13.64 2°56.016 20.1052 0.014643 0.074455 -3.020363
2011-10-17 06:52:03 51°13.64 2°56.016 20.1099 0.01454 0.073971 -3.020363
2011-10-17 06:52:08 51°13.64 2°56.016 20.1267 0.01454 0.073974 -3.020363
2011-10-17 06:52:13 51°13.641 2°56.016 20.1432 0.01454 0.073977 -3.020363
2011-10-17 06:52:18 51°13.641 2°56.016 20.142 0.01454 0.073979 -3.020363
2011-10-17 06:52:23 51°13.641 2°56.016 20.1334 0.01454 0.073979 -3.020363
2011-10-17 06:52:28 51°13.641 2°56.016 20.1265 0.01454 0.073982 -3.020363
2011-10-17 06:52:33 51°13.641 2°56.016 20.1457 0.01454 0.073984 -3.020363
2011-10-17 06:52:37 51°13.641 2°56.016 20.158 0.01454 0.073987 -3.020363
2011-10-17 06:52:43 51°13.641 2°56.015 20.166 0.01454 0.07399 -3.020363
2011-10-17 06:52:48 51°13.64 2°56.015 20.1551 0.01454 0.073993 -3.020363
2011-10-17 06:52:53 51°13.64 2°56.015 20.1415 0.01454 0.073993 -3.020363
2011-10-17 06:52:57 51°13.64 2°56.015 20.1669 0.01454 0.073994 -3.020363
2011-10-17 06:53:03 51°13.64 2°56.015 20.1698 0.01454 0.073997 -3.020363
2011-10-17 06:53:08 51°13.64 2°56.015 20.1697 0.01454 0.074001 -3.020363
2011-10-17 06:53:13 51°13.64 2°56.014 20.1623 0.01454 0.074003 -3.020363
2011-10-17 06:53:18 51°13.64 2°56.014 20.1607 0.01454 0.074005 -3.020363
2011-10-17 06:53:23 51°13.64 2°56.014 20.1546 0.01454 0.074005 -3.020363
2011-10-17 06:53:28 51°13.64 2°56.014 20.1595 0.01454 0.074007 -3.020363
2011-10-17 06:53:33 51°13.639 2°56.014 20.1601 0.01454 0.074011 -3.020363
2011-10-17 06:53:38 51°13.639 2°56.013 20.1602 0.01454 0.074013 -3.020363
2011-10-17 06:53:43 51°13.639 2°56.013 20.1639 0.01454 0.074016 -3.020363
2011-10-17 06:53:48 51°13.639 2°56.013 20.1626 0.01454 0.074018 -3.020363
2011-10-17 06:53:53 51°13.639 2°56.013 20.1628 0.01454 0.074018 -3.020363
2011-10-17 06:53:58 51°13.639 2°56.012 20.1686 0.01454 0.07402 -3.020363
2011-10-17 06:54:03 51°13.638 2°56.012 20.1653 0.01454 0.074023 -3.020363
2011-10-17 06:54:08 51°13.638 2°56.012 20.163 0.01454 0.074025 -3.020363
2011-10-17 06:54:13 51°13.638 2°56.012 20.2604 0.01454 0.074028 -3.020363
2011-10-17 06:54:18 51°13.638 2°56.013 20.1373 0.01454 0.07403 -3.020363
2011-10-17 06:54:23 51°13.637 2°56.014 20.1705 0.01454 0.07403 -3.020363
2011-10-17 06:54:28 51°13.635 2°56.015 20.1904 0.01454 0.074032 -3.020363
2011-10-17 06:54:33 51°13.634 2°56.017 20.1689 0.01454 0.074035 -3.020363
2011-10-17 06:54:38 51°13.632 2°56.018 20.1724 0.01454 0.074037 -3.020363
2011-10-17 06:54:43 51°13.63 2°56.02 20.1717 0.01454 0.074039 -3.020363
2011-10-17 06:54:48 51°13.628 2°56.023 20.1517 0.01454 0.074041 -3.020363
2011-10-17 06:54:53 51°13.626 2°56.026 20.1764 0.01454 0.074041 -3.020363
2011-10-17 06:54:57 51°13.624 2°56.028 20.1328 0.01454 0.074044 -3.020363
2011-10-17 06:55:03 51°13.621 2°56.031 20.0027 0.01454 0.074046 -3.020363
2011-10-17 06:55:08 51°13.62 2°56.033 20.0164 0.01454 0.074049 -3.020363
2011-10-17 06:55:13 51°13.619 2°56.035 20.0723 0.01454 0.074051 -3.020363
2011-10-17 06:55:17 51°13.618 2°56.035 20.142 0.01454 0.074054 -3.020363
2011-10-17 06:55:22 51°13.618 2°56.034 20.0324 0.01454 0.074054 -3.020363
2011-10-17 06:55:28 51°13.618 2°56.032 20.1093 0.01454 0.074055 -3.020363
2011-10-17 06:55:33 51°13.618 2°56.029 20.1133 0.01454 0.074059 -3.020363
2011-10-17 06:55:38 51°13.62 2°56.025 20.1148 0.01454 0.074061 -3.020363
2011-10-17 06:55:44 51°13.622 2°56.021 20.1194 0.01454 0.074063 -3.020363
2011-10-17 06:55:49 51°13.623 2°56.016 20.1429 0.01454 0.074065 -3.020363
2011-10-17 06:55:55 51°13.626 2°56.01 20.1353 0.01454 0.074065 -3.020363
2011-10-17 06:56:01 51°13.629 2°56.003 20.1318 0.01454 0.074068 -3.020363
2011-10-17 06:56:06 51°13.631 2°55.997 20.1169 0.01454 0.074071 -3.020363
2011-10-17 06:56:11 51°13.634 2°55.991 20.1114 0.01454 0.074074 -3.020363
2011-10-17 06:56:16 51°13.637 2°55.984 20.1212 0.01454 0.074076 -3.020363
2011-10-17 06:56:21 51°13.64 2°55.977 20.1317 0.01454 0.07408 -3.020363
2011-10-17 06:56:26 51°13.643 2°55.97 20.1521 0.01454 0.07408 -3.020363
2011-10-17 06:56:31 51°13.647 2°55.962 20.1045 0.01454 0.074084 -3.020363
2011-10-17 06:56:36 51°13.65 2°55.954 20.1304 0.01454 0.074087 -3.020363
2011-10-17 06:56:41 51°13.654 2°55.945 20.1591 0.01454 0.07409 -3.020363
2011-10-17 06:56:46 51°13.657 2°55.936 20.1895 0.01454 0.074094 -3.020363
2011-10-17 06:56:51 51°13.66 2°55.928 20.1806 0.01454 0.074097 -3.020363
2011-10-17 06:56:56 51°13.663 2°55.919 20.1621 0.01454 0.074097 -3.020363
2011-10-17 06:57:01 51°13.666 2°55.911 20.149 0.01454 0.0741 -3.020363
2011-10-17 06:57:06 51°13.669 2°55.902 20.1588 0.01454 0.074104 -3.020363
2011-10-17 06:57:11 51°13.672 2°55.893 20.15 0.01454 0.074108 -3.020363
2011-10-17 06:57:16 51°13.675 2°55.884 20.1773 0.01454 0.074111 -3.020363
2011-10-17 06:57:21 51°13.678 2°55.875 20.1638 0.01454 0.074114 -3.020363
2011-10-17 06:57:26 51°13.681 2°55.866 20.1888 0.01454 0.074114 -3.020363
2011-10-17 06:57:31 51°13.683 2°55.858 20.1857 0.01454 0.074118 -3.020363
2011-10-17 06:57:36 51°13.686 2°55.85 20.1787 0.01454 0.074121 -3.020363
2011-10-17 06:57:41 51°13.688 2°55.842 20.1808 0.01454 0.074125 -3.020363
2011-10-17 06:57:46 51°13.691 2°55.834 20.1717 0.01454 0.074128 -3.020363
2011-10-17 06:57:51 51°13.692 2°55.827 20.1777 0.01454 0.074132 -3.020363
2011-10-17 06:57:56 51°13.694 2°55.819 20.1749 0.01454 0.074132 -3.020363
2011-10-17 06:58:01 51°13.696 2°55.811 20.1695 0.01454 0.074136 -3.020363
2011-10-17 06:58:06 51°13.697 2°55.803 20.1665 0.01454 0.074139 -3.020363
2011-10-17 06:58:11 51°13.698 2°55.795 20.1667 0.01454 0.074143 -3.020363
2011-10-17 06:58:16 51°13.699 2°55.787 20.1779 0.01454 0.074146 -3.020363
2011-10-17 06:58:21 51°13.7 2°55.779 20.1823 0.01454 0.074149 -3.020363
2011-10-17 06:58:26 51°13.701 2°55.772 20.1833 0.01454 0.074149 -3.020363
2011-10-17 06:58:31 51°13.701 2°55.765 20.2017 0.01454 0.074153 -3.020363
2011-10-17 06:58:36 51°13.702 2°55.758 20.2017 0.01454 0.074157 -3.020363
2011-10-17 06:58:41 51°13.702 2°55.752 20.1765 0.01454 0.07416 -3.020363
2011-10-17 06:58:46 51°13.702 2°55.748 20.1792 0.01454 0.074163 -3.020363
2011-10-17 06:58:51 51°13.702 2°55.744 20.1903 0.01454 0.074167 -3.020363
2011-10-17 06:58:56 51°13.702 2°55.742 20.1953 0.01454 0.074167 -3.020363
2011-10-17 06:59:01 51°13.702 2°55.739 20.1931 0.01454 0.074171 -3.020363
2011-10-17 06:59:06 51°13.702 2°55.738 20.2111 0.01454 0.074174 -3.020363
2011-10-17 06:59:11 51°13.702 2°55.738 20.2178 0.01454 0.074178 -3.020363
2011-10-17 06:59:15 51°13.701 2°55.739 20.2152 0.01454 0.074182 -3.020363
2011-10-17 06:59:20 51°13.702 2°55.74 20.2172 0.01454 0.074186 -3.020363
2011-10-17 06:59:25 51°13.703 2°55.741 20.2279 0.01454 0.074186 -3.020363
2011-10-17 06:59:30 51°13.705 2°55.742 20.2148 0.01454 0.074189 -3.020363
2011-10-17 06:59:35 51°13.707 2°55.743 20.2046 0.01454 0.074193 -3.020363
2011-10-17 06:59:40 51°13.708 2°55.744 20.0634 0.01454 0.074197 -3.020363
2011-10-17 06:59:45 51°13.709 2°55.745 20.1667 0.01454 0.0742 -3.020363
2011-10-17 06:59:49 51°13.71 2°55.744 20.1656 0.01454 0.074204 -3.020363
2011-10-17 06:59:54 51°13.71 2°55.744 19.9984 0.01454 0.074204 -3.020363
2011-10-17 06:59:59 51°13.709 2°55.743 20.1696 0.01454 0.074207 -3.020363
2011-10-17 07:00:04 51°13.707 2°55.741 20.1787 0.01454 0.074211 -3.020363
2011-10-17 07:00:09 51°13.705 2°55.74 20.167 0.01454 0.074214 -3.020363
2011-10-17 07:00:13 51°13.703 2°55.739 20.1862 0.01454 0.074218 -3.020363
2011-10-17 07:00:19 51°13.7 2°55.739 20.1786 0.01454 0.07422 -3.020363
2011-10-17 07:00:24 51°13.698 2°55.738 20.2084 0.01454 0.07422 -3.020363
2011-10-17 07:00:30 51°13.696 2°55.737 20.21 0.01454 0.074223 -3.020363
2011-10-17 07:00:36 51°13.696 2°55.737 20.2503 0.01454 0.074225 -3.020363
2011-10-17 07:00:41 51°13.698 2°55.736 20.2468 0.01454 0.074229 -3.020363
2011-10-17 07:00:46 51°13.701 2°55.736 20.252 0.01454 0.074231 -3.020363
2011-10-17 07:00:51 51°13.704 2°55.735 20.2288 0.01454 0.074235 -3.020363
2011-10-17 07:00:57 51°13.708 2°55.733 20.2311 0.01454 0.074235 -3.020363
2011-10-17 07:01:01 51°13.712 2°55.73 20.1953 0.01454 0.074238 -3.020363
2011-10-17 07:01:06 51°13.717 2°55.727 20.1791 0.01454 0.07424 -3.020363
2011-10-17 07:01:11 51°13.722 2°55.723 20.1349 0.01454 0.074243 -3.020363
2011-10-17 07:01:16 51°13.728 2°55.718 20.128 0.01454 0.074245 -3.020363
2011-10-17 07:01:21 51°13.734 2°55.713 20.1046 0.01454 0.074248 -3.020363
2011-10-17 07:01:26 51°13.742 2°55.707 20.1079 0.01454 0.074248 -3.020363
2011-10-17 07:01:31 51°13.749 2°55.701 20.0506 0.01454 0.07425 -3.020363
2011-10-17 07:01:36 51°13.758 2°55.696 20.0437 0.01454 0.074251 -3.020363
2011-10-17 07:01:41 51°13.766 2°55.69 20.0549 0.01454 0.074254 -3.020363
2011-10-17 07:01:45 51°13.773 2°55.684 20.0264 0.01454 0.074255 -3.020363
2011-10-17 07:01:50 51°13.783 2°55.677 20.0414 0.01454 0.074258 -3.020363
2011-10-17 07:01:55 51°13.792 2°55.67 19.981 0.01454 0.074258 -3.020363
2011-10-17 07:02:00 51°13.802 2°55.663 19.9672 0.01454 0.07426 -3.020363
2011-10-17 07:02:04 51°13.81 2°55.657 19.9794 0.01454 0.074262 -3.020363
2011-10-17 07:02:09 51°13.821 2°55.65 20.0117 0.01454 0.074264 -3.020363
2011-10-17 07:02:14 51°13.831 2°55.642 20.0087 0.01454 0.074264 -3.020363
2011-10-17 07:02:19 51°13.842 2°55.635 20.0768 0.01454 0.074267 -3.020363
2011-10-17 07:02:23 51°13.85 2°55.629 20.0516 0.01454 0.074267 -3.020363
2011-10-17 07:02:29 51°13.863 2°55.62 20.0746 0.01454 0.074268 -3.020363
2011-10-17 07:02:33 51°13.872 2°55.614 20.0354 0.01454 0.07427 -3.020363
2011-10-17 07:02:38 51°13.883 2°55.607 20.07 0.01454 0.074272 -3.020363
2011-10-17 07:02:43 51°13.894 2°55.6 20.0618 0.01454 0.074274 -3.020363
2011-10-17 07:02:48 51°13.905 2°55.593 20.0312 0.01454 0.074275 -3.020363
2011-10-17 07:02:53 51°13.916 2°55.587 20.0962 0.01454 0.074275 -3.020363
2011-10-17 07:02:58 51°13.928 2°55.581 20.1066 0.01454 0.074277 -3.020363
2011-10-17 07:03:03 51°13.939 2°55.574 20.0912 0.01454 0.074277 -3.020363
2011-10-17 07:03:08 51°13.95 2°55.567 20.0997 0.01454 0.07428 -3.020363
2011-10-17 07:03:13 51°13.961 2°55.561 20.1075 0.01454 0.074281 -3.020363
2011-10-17 07:03:18 51°13.972 2°55.555 20.1263 0.01454 0.074283 -3.020363
2011-10-17 07:03:23 51°13.983 2°55.548 20.1216 0.01454 0.074283 -3.020363
2011-10-17 07:03:28 51°13.995 2°55.542 20.1516 0.01454 0.074285 -3.020363
2011-10-17 07:03:33 51°14.006 2°55.536 20.1526 0.01454 0.074286 -3.020363
2011-10-17 07:03:38 51°14.017 2°55.529 20.1745 0.01454 0.074288 -3.020363
2011-10-17 07:03:43 51°14.028 2°55.522 20.1787 0.01454 0.07429 -3.020363
2011-10-17 07:03:48 51°14.039 2°55.515 20.18 0.01454 0.074291 -3.020363
2011-10-17 07:03:53 51°14.05 2°55.506 20.188 0.01454 0.074291 -3.020363
2011-10-17 07:03:58 51°14.061 2°55.498 20.136 0.01454 0.074293 -3.020363
2011-10-17 07:04:03 51°14.072 2°55.488 20.1236 0.01454 0.074295 -3.020363
2011-10-17 07:04:09 51°14.086 2°55.477 20.1121 0.01454 0.074298 -3.020363
2011-10-17 07:04:13 51°14.095 2°55.47 20.0631 0.01454 0.074299 -3.020363
2011-10-17 07:04:17 51°14.104 2°55.462 20.1223 0.01454 0.074302 -3.020363
2011-10-17 07:04:22 51°14.115 2°55.453 20.1721 0.01454 0.074302 -3.020363
2011-10-17 07:04:28 51°14.129 2°55.44 20.1349 0.01454 0.074303 -3.020363
2011-10-17 07:04:33 51°14.141 2°55.43 20.1235 0.01454 0.074304 -3.020363
2011-10-17 07:04:38 51°14.153 2°55.419 20.1398 0.01454 0.074307 -3.020363
2011-10-17 07:04:43 51°14.164 2°55.407 20.0465 0.014437 0.073819 -3.020363
2011-10-17 07:04:49 51°14.178 2°55.393 20.0186 0.01454 0.07431 -3.020363
2011-10-17 07:04:54 51°14.19 2°55.382 20.046 0.01454 0.07431 -3.020363
2011-10-17 07:04:59 51°14.203 2°55.37 20.0501 0.014437 0.073822 -3.020363
2011-10-17 07:05:05 51°14.217 2°55.355 20.0562 0.01454 0.074313 -3.020363
2011-10-17 07:05:10 51°14.23 2°55.344 20.1123 0.014437 0.073825 -3.020363
2011-10-17 07:05:15 51°14.243 2°55.331 20.0081 0.014437 0.073827 -3.020363
2011-10-17 07:05:20 51°14.256 2°55.319 20.0298 0.014437 0.073829 -3.020363
2011-10-17 07:05:25 51°14.268 2°55.307 19.9807 0.014437 0.073829 -3.020363
2011-10-17 07:05:29 51°14.279 2°55.298 20.0114 0.014437 0.073832 -3.020363
2011-10-17 07:05:34 51°14.292 2°55.286 20.0822 0.014437 0.073834 -3.020363
2011-10-17 07:05:40 51°14.309 2°55.271 19.9854 0.014437 0.073835 -3.020363
2011-10-17 07:05:45 51°14.322 2°55.26 20.0721 0.014437 0.073836 -3.020363
2011-10-17 07:05:49 51°14.333 2°55.25 20.0352 0.014437 0.07384 -3.020363
2011-10-17 07:05:54 51°14.346 2°55.238 20.0052 0.014437 0.07384 -3.020363
2011-10-17 07:05:59 51°14.359 2°55.225 20.0193 0.014437 0.073843 -3.020363
2011-10-17 07:06:04 51°14.373 2°55.213 20.0555 0.014437 0.073846 -3.020363
2011-10-17 07:06:09 51°14.386 2°55.2 19.9925 0.014437 0.073846 -3.020363
2011-10-17 07:06:13 51°14.397 2°55.19 19.9684 0.014437 0.073848 -3.020363
2011-10-17 07:06:18 51°14.41 2°55.177 20.0823 0.014437 0.07385 -3.020363
2011-10-17 07:06:23 51°14.424 2°55.164 20.1092 0.014437 0.07385 -3.020363
2011-10-17 07:06:28 51°14.437 2°55.151 20.1079 0.014437 0.073853 -3.020363
2011-10-17 07:06:33 51°14.45 2°55.138 20.0349 0.014437 0.073855 -3.020363
2011-10-17 07:06:37 51°14.461 2°55.126 20.0891 0.014437 0.073857 -3.020363
2011-10-17 07:06:42 51°14.474 2°55.113 20.1274 0.014437 0.073859 -3.020363
2011-10-17 07:06:48 51°14.49 2°55.096 19.952 0.014437 0.073859 -3.020363
2011-10-17 07:06:53 51°14.504 2°55.083 19.9598 0.014437 0.073859 -3.020363
2011-10-17 07:06:58 51°14.517 2°55.069 20.1288 0.014437 0.073862 -3.020363
2011-10-17 07:07:03 51°14.531 2°55.056 20.0538 0.014437 0.073864 -3.020363
2011-10-17 07:07:08 51°14.545 2°55.041 20.0641 0.014437 0.073866 -3.020363
2011-10-17 07:07:13 51°14.558 2°55.024 19.9048 0.014437 0.073869 -3.020363
2011-10-17 07:07:17 51°14.568 2°55.011 19.98 0.014437 0.073868 -3.020363
2011-10-17 07:07:23 51°14.584 2°54.992 19.9142 0.014437 0.073868 -3.020363
2011-10-17 07:07:28 51°14.598 2°54.976 19.0216 0.014437 0.07387 -3.020363
2011-10-17 07:07:33 51°14.612 2°54.96 17.9055 0.014437 0.073851 -3.020363
2011-10-17 07:07:38 51°14.626 2°54.945 17.1401 0.014437 0.073847 -3.020363
2011-10-17 07:07:43 51°14.64 2°54.93 16.4616 0.496404 2.773858 -3.020363
2011-10-17 07:07:48 51°14.654 2°54.915 15.8652 4.742659 32.833018 -3.020363
2011-10-17 07:07:53 51°14.668 2°54.901 15.7321 4.742659 32.833018 -3.020363
2011-10-17 07:07:58 51°14.682 2°54.885 15.5074 4.878445 34.439765 -3.020363
2011-10-17 07:08:03 51°14.696 2°54.87 15.3443 4.798423 34.58603 -3.020363
2011-10-17 07:08:08 51°14.711 2°54.855 15.2887 4.595964 33.754072 -3.020363
2011-10-17 07:08:13 51°14.725 2°54.841 15.2533 4.461213 33.35488 -3.020363
2011-10-17 07:08:18 51°14.739 2°54.827 15.3071 4.3294 32.78343 -3.020363
2011-10-17 07:08:23 51°14.754 2°54.816 15.1716 4.3294 32.78343 -3.020363
2011-10-17 07:08:28 51°14.77 2°54.807 15.0465 4.201665 32.269959 -3.020363
2011-10-17 07:08:33 51°14.786 2°54.797 15.0261 4.147661 32.312767 -3.020363
2011-10-17 07:08:37 51°14.798 2°54.79 15.1018 4.096147 32.117415 -3.020363
2011-10-17 07:08:43 51°14.817 2°54.781 14.9813 4.053447 31.941657 -3.020363
2011-10-17 07:08:48 51°14.833 2°54.774 14.94 4.004117 31.63116 -3.020363
2011-10-17 07:08:53 51°14.849 2°54.766 14.9203 4.004117 31.63116 -3.020363
2011-10-17 07:08:57 51°14.861 2°54.762 14.9104 4.003808 31.735515 -3.020363
2011-10-17 07:09:03 51°14.881 2°54.757 14.882 3.991166 31.717455 -3.020363
2011-10-17 07:09:08 51°14.897 2°54.753 14.8931 3.955001 31.484701 -3.020363
2011-10-17 07:09:13 51°14.913 2°54.749 14.8536 3.921844 31.241142 -3.020363
2011-10-17 07:09:17 51°14.926 2°54.747 14.8462 3.911794 31.201687 -3.020363
2011-10-17 07:09:23 51°14.946 2°54.744 14.8879 3.911794 31.201687 -3.020363
2011-10-17 07:09:28 51°14.962 2°54.743 14.8456 3.896149 31.113714 -3.020363
2011-10-17 07:09:33 51°14.978 2°54.742 14.8404 3.893767 31.139683 -3.020363
2011-10-17 07:09:38 51°14.994 2°54.743 14.8434 3.889519 31.136632 -3.020363
2011-10-17 07:09:43 51°15.011 2°54.743 14.8506 3.892939 31.189479 -3.020363
2011-10-17 07:09:48 51°15.027 2°54.743 14.8084 3.88092 31.101337 -3.020363
2011-10-17 07:09:53 51°15.043 2°54.743 14.7999 3.88092 31.101337 -3.020363
2011-10-17 07:09:58 51°15.06 2°54.743 14.8228 3.872839 31.046305 -3.020363
2011-10-17 07:10:03 51°15.076 2°54.741 14.811 3.883511 31.150775 -3.020363
2011-10-17 07:10:08 51°15.092 2°54.739 14.7993 3.85761 30.930713 -3.020363
2011-10-17 07:10:13 51°15.108 2°54.734 14.8062 3.864137 30.999461 -3.020363
2011-10-17 07:10:17 51°15.12 2°54.729 14.8074 3.862272 30.994617 -3.020363
2011-10-17 07:10:23 51°15.139 2°54.721 14.7983 3.862272 30.994617 -3.020363
2011-10-17 07:10:28 51°15.154 2°54.713 14.7955 3.857921 30.971493 -3.020363
2011-10-17 07:10:33 51°15.17 2°54.706 14.7974 3.855124 30.956994 -3.020363
2011-10-17 07:10:37 51°15.182 2°54.701 14.8109 3.839273 30.823868 -3.020363
2011-10-17 07:10:43 51°15.201 2°54.692 14.7765 3.837305 30.811509 -3.020363
2011-10-17 07:10:48 51°15.217 2°54.684 14.782 3.833161 30.781013 -3.020363
2011-10-17 07:10:53 51°15.233 2°54.678 14.8056 3.833161 30.781013 -3.020363
2011-10-17 07:10:57 51°15.245 2°54.672 14.7982 3.848908 30.926354 -3.020363
2011-10-17 07:11:03 51°15.264 2°54.664 14.7976 3.829639 30.758676 -3.020363
2011-10-17 07:11:08 51°15.28 2°54.658 14.7988 3.846526 30.91554 -3.020363
2011-10-17 07:11:13 51°15.296 2°54.651 14.8 3.842589 30.881641 -3.020363
2011-10-17 07:11:17 51°15.309 2°54.647 14.8235 3.836995 30.838159 -3.020363
2011-10-17 07:11:23 51°15.328 2°54.639 14.8229 3.836995 30.838159 -3.020363
2011-10-17 07:11:28 51°15.344 2°54.633 14.8406 3.822284 30.705983 -3.020363
2011-10-17 07:11:33 51°15.36 2°54.626 14.8502 3.831504 30.789059 -3.020363
2011-10-17 07:11:38 51°15.376 2°54.619 14.86 3.834094 30.81418 -3.020363
2011-10-17 07:11:43 51°15.392 2°54.613 14.8812 3.8314 30.788133 -3.020363
2011-10-17 07:11:48 51°15.408 2°54.606 14.8809 3.826428 30.74237 -3.020363
2011-10-17 07:11:53 51°15.424 2°54.6 14.8955 3.826428 30.74237 -3.020363
2011-10-17 07:11:57 51°15.437 2°54.595 14.9009 3.834715 30.809928 -3.020363
2011-10-17 07:12:03 51°15.456 2°54.587 14.9138 3.834404 30.800614 -3.020363
2011-10-17 07:12:08 51°15.472 2°54.581 14.9246 3.83917 30.834709 -3.020363
2011-10-17 07:12:13 51°15.488 2°54.575 14.9318 3.832539 30.768934 -3.020363
2011-10-17 07:12:18 51°15.504 2°54.568 14.9351 3.837926 30.807265 -3.020363
2011-10-17 07:12:23 51°15.52 2°54.562 14.9444 3.837926 30.807265 -3.020363
2011-10-17 07:12:28 51°15.537 2°54.556 14.9574 3.838859 30.807757 -3.020363
2011-10-17 07:12:33 51°15.553 2°54.551 14.9601 3.83285 30.744985 -3.020363
2011-10-17 07:12:37 51°15.566 2°54.546 14.9673 3.847353 30.866629 -3.020363
2011-10-17 07:12:43 51°15.585 2°54.54 14.9742 3.841863 30.809782 -3.020363
2011-10-17 07:12:48 51°15.601 2°54.535 14.9855 3.844452 30.826371 -3.020363
2011-10-17 07:12:53 51°15.618 2°54.53 14.9915 3.844452 30.826371 -3.020363
2011-10-17 07:12:57 51°15.63 2°54.526 15.0035 3.848804 30.859322 -3.020363
2011-10-17 07:13:03 51°15.65 2°54.522 15.0119 3.839583 30.769253 -3.020363
2011-10-17 07:13:08 51°15.666 2°54.518 15.0213 3.837615 30.745198 -3.020363
2011-10-17 07:13:13 51°15.683 2°54.515 15.023 3.852222 30.869582 -3.020363
2011-10-17 07:13:17 51°15.696 2°54.511 15.0271 3.836268 30.7202 -3.020363
2011-10-17 07:13:23 51°15.715 2°54.506 15.0288 3.836268 30.7202 -3.020363
2011-10-17 07:13:28 51°15.732 2°54.501 15.0362 3.853051 30.862618 -3.020363
2011-10-17 07:13:33 51°15.748 2°54.496 15.0403 3.822385 30.581678 -3.020363
2011-10-17 07:13:38 51°15.764 2°54.489 15.0418 3.797523 30.354088 -3.020363
2011-10-17 07:13:43 51°15.78 2°54.483 15.049 3.760128 30.014944 -3.020363
2011-10-17 07:13:48 51°15.797 2°54.477 15.05 3.750598 29.925975 -3.020363
2011-10-17 07:13:53 51°15.813 2°54.47 15.0491 3.750598 29.925975 -3.020363
2011-10-17 07:13:57 51°15.825 2°54.464 15.0544 3.696325 29.440811 -3.020363
2011-10-17 07:14:03 51°15.845 2°54.454 15.0545 3.708029 29.540026 -3.020363
2011-10-17 07:14:08 51°15.861 2°54.446 15.069 3.718904 29.633177 -3.020363
2011-10-17 07:14:13 51°15.876 2°54.438 15.0673 3.704714 29.503849 -3.020363
2011-10-17 07:14:18 51°15.892 2°54.43 15.0748 3.720768 29.642808 -3.020363
2011-10-17 07:14:23 51°15.908 2°54.421 15.078 3.720768 29.642808 -3.020363
2011-10-17 07:14:28 51°15.923 2°54.414 15.0869 3.765825 30.040779 -3.020363
2011-10-17 07:14:33 51°15.938 2°54.406 15.0804 3.764996 30.030897 -3.020363
2011-10-17 07:14:38 51°15.951 2°54.399 15.0928 3.745523 29.855139 -3.020363
2011-10-17 07:14:43 51°15.964 2°54.392 15.0926 3.708857 29.527433 -3.020363
2011-10-17 07:14:48 51°15.977 2°54.385 15.0933 3.719318 29.616236 -3.020363
2011-10-17 07:14:53 51°15.989 2°54.38 15.0968 3.719318 29.616236 -3.020363
2011-10-17 07:14:58 51°16 2°54.374 15.0959 3.720042 29.618282 -3.020363
2011-10-17 07:15:03 51°16.012 2°54.369 15.0992 3.762406 29.9896 -3.020363
2011-10-17 07:15:08 51°16.023 2°54.365 15.093 3.760231 29.967169 -3.020363
2011-10-17 07:15:13 51°16.033 2°54.361 15.0936 3.728121 29.679136 -3.020363
2011-10-17 07:15:17 51°16.041 2°54.358 15.0933 3.751841 29.885926 -3.020363
2011-10-17 07:15:22 51°16.051 2°54.354 15.0963 3.751841 29.885926 -3.020363
2011-10-17 07:15:28 51°16.062 2°54.35 15.0927 3.727914 29.67168 -3.020363
2011-10-17 07:15:33 51°16.07 2°54.347 15.0945 3.756294 29.921586 -3.020363
2011-10-17 07:15:37 51°16.077 2°54.345 15.0941 3.757641 29.932879 -3.020363
2011-10-17 07:15:43 51°16.086 2°54.342 15.0894 3.734646 29.729983 -3.020363
2011-10-17 07:15:48 51°16.093 2°54.34 15.0923 3.773489 30.074529 -3.020363
2011-10-17 07:15:53 51°16.101 2°54.337 15.0908 3.773489 30.074529 -3.020363
2011-10-17 07:15:57 51°16.106 2°54.336 15.0919 3.757641 29.932879 -3.020363
2011-10-17 07:16:03 51°16.114 2°54.333 15.0921 3.731228 29.699121 -3.020363
2011-10-17 07:16:08 51°16.121 2°54.331 15.0876 3.736614 29.747394 -3.020363
2011-10-17 07:16:13 51°16.127 2°54.329 15.0862 3.719939 29.599906 -3.020363
2011-10-17 07:16:18 51°16.132 2°54.326 15.0843 3.743554 29.810058 -3.020363
2011-10-17 07:16:23 51°16.138 2°54.324 15.0865 3.743554 29.810058 -3.020363
2011-10-17 07:16:28 51°16.143 2°54.321 15.0839 3.740447 29.783812 -3.020363
2011-10-17 07:16:33 51°16.149 2°54.319 15.0852 3.699639 29.423597 -3.020363
2011-10-17 07:16:38 51°16.154 2°54.316 15.0832 3.763027 29.984368 -3.020363
2011-10-17 07:16:43 51°16.159 2°54.314 15.086 3.729675 29.691005 -3.020363
2011-10-17 07:16:48 51°16.164 2°54.311 15.0853 3.737961 29.765575 -3.020363
2011-10-17 07:16:53 51°16.169 2°54.308 15.0858 3.737961 29.765575 -3.020363
2011-10-17 07:16:58 51°16.173 2°54.305 15.0843 3.693114 29.370286 -3.020363
2011-10-17 07:17:03 51°16.178 2°54.302 15.084 3.716003 29.573828 -3.020363
2011-10-17 07:17:08 51°16.183 2°54.298 15.0829 3.686071 29.309933 -3.020363
2011-10-17 07:17:13 51°16.188 2°54.295 15.0813 3.721285 29.621166 -3.020363
2011-10-17 07:17:17 51°16.191 2°54.292 15.0817 3.722114 29.629119 -3.020363
2011-10-17 07:17:23 51°16.197 2°54.289 15.0815 3.722114 29.629119 -3.020363
2011-10-17 07:17:28 51°16.203 2°54.286 15.0831 3.761785 29.980303 -3.020363
2011-10-17 07:17:33 51°16.208 2°54.283 15.0796 3.684 29.293491 -3.020363
2011-10-17 07:17:37 51°16.211 2°54.281 15.0806 3.6956 29.395959 -3.020363
2011-10-17 07:17:43 51°16.217 2°54.279 15.0827 3.667119 29.145069 -3.020363
2011-10-17 07:17:48 51°16.221 2°54.278 15.0779 3.702849 29.46189 -3.020363
2011-10-17 07:17:53 51°16.226 2°54.277 15.0782 3.702849 29.46189 -3.020363
2011-10-17 07:17:57 51°16.229 2°54.276 15.0792 3.739411 29.784681 -3.020363
2011-10-17 07:18:02 51°16.233 2°54.275 15.0792 3.712482 29.547046 -3.020363
2011-10-17 07:18:08 51°16.237 2°54.275 15.0772 3.748319 29.864809 -3.020363
2011-10-17 07:18:13 51°16.24 2°54.274 15.0761 3.695807 29.399647 -3.020363
2011-10-17 07:18:18 51°16.243 2°54.274 15.0766 3.67644 29.229193 -3.020363
2011-10-17 07:18:23 51°16.246 2°54.273 15.0784 3.67644 29.229193 -3.020363
2011-10-17 07:18:28 51°16.247 2°54.272 15.0773 3.698292 29.422852 -3.020363
2011-10-17 07:18:33 51°16.249 2°54.272 15.08 3.728328 29.689097 -3.020363
2011-10-17 07:18:37 51°16.25 2°54.271 15.0783 3.726878 29.676891 -3.020363
2011-10-17 07:18:43 51°16.251 2°54.27 15.0782 3.740861 29.801913 -3.020363
2011-10-17 07:18:48 51°16.252 2°54.269 15.0766 3.7246 29.658603 -3.020363
2011-10-17 07:18:53 51°16.252 2°54.268 15.0765 3.7246 29.658603 -3.020363
2011-10-17 07:18:58 51°16.253 2°54.267 15.0764 3.73475 29.749065 -3.020363
2011-10-17 07:19:03 51°16.254 2°54.267 15.0769 3.709478 29.525464 -3.020363
2011-10-17 07:19:08 51°16.255 2°54.266 15.0751 3.711239 29.541657 -3.020363
2011-10-17 07:19:13 51°16.256 2°54.265 15.0751 3.726982 29.680309 -3.020363
2011-10-17 07:19:18 51°16.257 2°54.264 15.0739 3.680168 29.267047 -3.020363
2011-10-17 07:19:23 51°16.257 2°54.264 15.0756 3.680168 29.267047 -3.020363
2011-10-17 07:19:28 51°16.258 2°54.263 15.0762 3.755363 29.932871 -3.020363
2011-10-17 07:19:33 51°16.259 2°54.263 15.0727 3.680582 29.271322 -3.020363
2011-10-17 07:19:37 51°16.259 2°54.262 15.0778 3.728329 29.69285 -3.020363
2011-10-17 07:19:43 51°16.26 2°54.262 15.0593 3.71735 29.596954 -3.020363
2011-10-17 07:19:48 51°16.261 2°54.261 15.0538 3.719007 29.612239 -3.020363
2011-10-17 07:19:53 51°16.262 2°54.261 15.0518 3.719007 29.612239 -3.020363
2011-10-17 07:19:57 51°16.262 2°54.26 15.0493 3.730607 29.714896 -3.020363
2011-10-17 07:20:02 51°16.263 2°54.26 15.0519 3.732782 29.73415 -3.020363
2011-10-17 07:20:08 51°16.264 2°54.259 15.05 3.736304 29.762819 -3.020363
2011-10-17 07:20:13 51°16.264 2°54.259 15.0466 3.749148 29.874665 -3.020363
2011-10-17 07:20:18 51°16.265 2°54.258 15.0499 3.747905 29.864915 -3.020363
2011-10-17 07:20:23 51°16.266 2°54.258 15.0517 3.747905 29.864915 -3.020363
2011-10-17 07:20:28 51°16.266 2°54.257 15.0512 3.751634 29.901094 -3.020363
2011-10-17 07:20:33 51°16.267 2°54.257 15.0528 3.749355 29.883426 -3.020363
2011-10-17 07:20:37 51°16.268 2°54.256 15.0475 3.745937 29.855663 -3.020363
2011-10-17 07:20:43 51°16.268 2°54.255 15.0475 3.716003 29.591901 -3.020363
2011-10-17 07:20:48 51°16.269 2°54.254 15.0486 3.739204 29.798541 -3.020363
2011-10-17 07:20:53 51°16.27 2°54.254 15.0479 3.739204 29.798541 -3.020363
2011-10-17 07:20:58 51°16.27 2°54.253 15.0478 3.673644 29.219274 -3.020363
2011-10-17 07:21:03 51°16.271 2°54.252 15.0464 3.713 29.567819 -3.020363
2011-10-17 07:21:08 51°16.272 2°54.251 15.0458 3.702228 29.472537 -3.020363
2011-10-17 07:21:13 51°16.272 2°54.251 15.0442 3.608713 28.64711 -3.020363
2011-10-17 07:21:17 51°16.273 2°54.25 15.0483 3.480431 27.520621 -3.020363
2011-10-17 07:21:23 51°16.274 2°54.249 15.0494 3.480431 27.520621 -3.020363
2011-10-17 07:21:28 51°16.274 2°54.248 15.0414 3.518529 27.85589 -3.020363
2011-10-17 07:21:33 51°16.275 2°54.247 15.0468 3.505588 27.742923 -3.020363
2011-10-17 07:21:37 51°16.275 2°54.246 15.0443 3.618965 28.740468 -3.020363
2011-10-17 07:21:43 51°16.276 2°54.245 15.0463 3.476497 27.488469 -3.020363
2011-10-17 07:21:48 51°16.276 2°54.244 15.0452 3.654071 29.051347 -3.020363
2011-10-17 07:21:53 51°16.277 2°54.243 15.0446 3.654071 29.051347 -3.020363
2011-10-17 07:21:57 51°16.278 2°54.243 15.0435 3.657177 29.078775 -3.020363
2011-10-17 07:22:03 51°16.278 2°54.241 15.0421 3.481777 27.535892 -3.020363
2011-10-17 07:22:08 51°16.279 2°54.24 15.0434 3.603122 28.602676 -3.020363
2011-10-17 07:22:13 51°16.28 2°54.24 15.0421 3.474634 27.4733 -3.020363
2011-10-17 07:22:17 51°16.28 2°54.239 15.0442 3.605193 28.620317 -3.020363
2011-10-17 07:22:23 51°16.281 2°54.238 15.0414 3.605193 28.620317 -3.020363
2011-10-17 07:22:28 51°16.281 2°54.237 15.0435 3.631702 28.855198 -3.020363
2011-10-17 07:22:33 51°16.282 2°54.236 15.0408 3.421012 27.005745 -3.020363
2011-10-17 07:22:37 51°16.282 2°54.235 15.0404 3.668155 29.177559 -3.020363
2011-10-17 07:22:43 51°16.283 2°54.234 15.0388 3.431363 27.096825 -3.020363
2011-10-17 07:22:48 51°16.284 2°54.232 15.0413 3.636673 28.900869 -3.020363
2011-10-17 07:22:53 51°16.284 2°54.231 15.047 3.636673 28.900869 -3.020363
2011-10-17 07:22:58 51°16.285 2°54.23 15.0404 3.50155 27.712176 -3.020363
2011-10-17 07:23:03 51°16.285 2°54.229 15.0448 3.577028 28.375334 -3.020363
2011-10-17 07:23:08 51°16.286 2°54.228 15.04 3.648375 29.004742 -3.020363
2011-10-17 07:23:13 51°16.286 2°54.227 15.0377 3.596805 28.551253 -3.020363
2011-10-17 07:23:17 51°16.286 2°54.226 15.0396 3.653242 29.048932 -3.020363
2011-10-17 07:23:23 51°16.287 2°54.224 15.0412 3.653242 29.048932 -3.020363
2011-10-17 07:23:28 51°16.287 2°54.223 15.0408 3.466456 27.406278 -3.020363
2011-10-17 07:23:33 51°16.288 2°54.222 15.0456 3.652724 29.043748 -3.020363
2011-10-17 07:23:38 51°16.288 2°54.221 15.04 3.650653 29.025464 -3.020363
2011-10-17 07:23:43 51°16.289 2°54.219 15.0406 3.615134 28.71275 -3.020363
2011-10-17 07:23:48 51°16.289 2°54.218 15.0419 3.539961 28.051756 -3.020363
2011-10-17 07:23:53 51°16.29 2°54.217 15.0441 3.539961 28.051756 -3.020363
2011-10-17 07:23:57 51°16.29 2°54.216 15.0392 3.524948 27.920469 -3.020363
2011-10-17 07:24:03 51°16.29 2°54.215 15.0461 3.579202 28.396864 -3.020363
2011-10-17 07:24:08 51°16.291 2°54.214 15.0414 3.574646 28.35617 -3.020363
2011-10-17 07:24:13 51°16.291 2°54.213 15.0423 3.63367 28.875594 -3.020363
2011-10-17 07:24:17 51°16.291 2°54.212 15.0451 3.602604 28.602937 -3.020363
2011-10-17 07:24:23 51°16.292 2°54.21 15.0421 3.602604 28.602937 -3.020363
2011-10-17 07:24:28 51°16.292 2°54.209 15.0397 3.581066 28.41267 -3.020363
2011-10-17 07:24:33 51°16.293 2°54.208 15.0464 3.624557 28.796436 -3.020363
2011-10-17 07:24:37 51°16.293 2°54.207 15.0419 3.605814 28.630616 -3.020363
2011-10-17 07:24:43 51°16.293 2°54.206 15.0455 3.656349 29.076363 -3.020363
2011-10-17 07:24:48 51°16.294 2°54.204 15.0495 3.631081 28.853975 -3.020363
2011-10-17 07:24:53 51°16.294 2°54.203 15.0406 3.631081 28.853975 -3.020363
2011-10-17 07:24:58 51°16.294 2°54.202 15.0405 3.618033 28.738309 -3.020363
2011-10-17 07:25:03 51°16.295 2°54.201 15.0439 3.56336 28.257474 -3.020363
2011-10-17 07:25:08 51°16.295 2°54.199 15.0404 3.481777 27.541112 -3.020363
2011-10-17 07:25:13 51°16.296 2°54.198 15.0461 3.650757 29.027602 -3.020363
2011-10-17 07:25:18 51°16.296 2°54.197 15.0461 3.636569 28.901783 -3.020363
2011-10-17 07:25:23 51°16.296 2°54.196 15.0409 3.636569 28.901783 -3.020363
2011-10-17 07:25:28 51°16.297 2°54.194 15.0516 3.625696 28.805267 -3.020363
2011-10-17 07:25:33 51°16.297 2°54.193 15.0443 3.48157 27.538137 -3.020363
2011-10-17 07:25:38 51°16.297 2°54.192 15.0558 3.3941 26.773999 -3.020363
2011-10-17 07:25:43 51°16.298 2°54.191 15.0457 3.434262 27.125032 -3.020363
2011-10-17 07:25:48 51°16.298 2°54.189 15.0485 3.541617 28.065722 -3.020363
2011-10-17 07:25:53 51°16.298 2°54.188 15.0496 3.541617 28.065722 -3.020363
2011-10-17 07:25:58 51°16.299 2°54.187 15.0533 3.509108 27.779654 -3.020363
2011-10-17 07:26:03 51°16.299 2°54.185 15.0539 3.65086 29.02668 -3.020363
2011-10-17 07:26:08 51°16.299 2°54.184 15.0489 3.653863 29.053193 -3.020363
2011-10-17 07:26:13 51°16.299 2°54.183 15.0595 3.590075 28.488977 -3.020363
2011-10-17 07:26:17 51°16.3 2°54.182 15.0575 3.644336 28.967875 -3.020363
2011-10-17 07:26:23 51°16.3 2°54.18 15.0542 3.644336 28.967875 -3.020363
2011-10-17 07:26:28 51°16.3 2°54.179 15.0517 3.648478 29.004433 -3.020363
2011-10-17 07:26:33 51°16.3 2°54.177 15.0552 3.574232 28.350136 -3.020363
2011-10-17 07:26:37 51°16.301 2°54.176 15.0504 3.595148 28.533053 -3.020363
2011-10-17 07:26:43 51°16.301 2°54.174 15.0511 3.64941 29.010825 -3.020363
2011-10-17 07:26:48 51°16.301 2°54.173 15.05 3.536026 28.011286 -3.020363
2011-10-17 07:26:53 51°16.301 2°54.171 15.0519 3.536026 28.011286 -3.020363
2011-10-17 07:26:58 51°16.302 2°54.17 15.0562 3.391306 26.7434 -3.020363
2011-10-17 07:27:03 51°16.302 2°54.169 15.0602 3.626628 28.808022 -3.020363
2011-10-17 07:27:08 51°16.302 2°54.167 15.0559 3.635119 28.882905 -3.020363
2011-10-17 07:27:13 51°16.302 2°54.166 15.0591 3.503103 27.722295 -3.020363
2011-10-17 07:27:17 51°16.302 2°54.165 15.0595 3.628802 28.827804 -3.020363
2011-10-17 07:27:23 51°16.302 2°54.163 15.0536 3.628802 28.827804 -3.020363
2011-10-17 07:27:28 51°16.303 2°54.162 15.055 3.554663 28.175645 -3.020363
2011-10-17 07:27:33 51°16.303 2°54.161 15.0549 3.600947 28.582317 -3.020363
2011-10-17 07:27:38 51°16.303 2°54.159 15.0539 3.51004 27.781978 -3.020363
2011-10-17 07:27:43 51°16.303 2°54.158 15.0464 3.532817 27.981327 -3.020363
2011-10-17 07:27:48 51°16.303 2°54.156 15.0501 3.308405 26.019326 -3.020363
2011-10-17 07:27:53 51°16.303 2°54.155 15.0494 3.308405 26.019326 -3.020363
2011-10-17 07:27:58 51°16.303 2°54.153 15.0538 3.649721 29.01051 -3.020363
2011-10-17 07:28:03 51°16.304 2°54.152 15.0543 3.439955 27.167977 -3.020363
2011-10-17 07:28:08 51°16.304 2°54.151 15.0554 3.552799 28.157482 -3.020363
2011-10-17 07:28:13 51°16.304 2°54.149 15.05 3.59753 28.552222 -3.020363
2011-10-17 07:28:18 51°16.304 2°54.148 15.0514 3.641022 28.936804 -3.020363
2011-10-17 07:28:23 51°16.304 2°54.147 15.053 3.641022 28.936804 -3.020363
2011-10-17 07:28:28 51°16.304 2°54.145 15.0532 3.589246 28.481084 -3.020363
2011-10-17 07:28:33 51°16.304 2°54.144 15.0551 3.4501 27.259035 -3.020363
2011-10-17 07:28:37 51°16.304 2°54.143 15.0545 3.640297 28.931018 -3.020363
2011-10-17 07:28:43 51°16.304 2°54.142 15.0522 3.328172 26.194092 -3.020363
2011-10-17 07:28:48 51°16.305 2°54.14 15.0541 3.639676 28.924317 -3.020363
2011-10-17 07:28:53 51°16.305 2°54.139 15.0493 3.639676 28.924317 -3.020363
2011-10-17 07:28:57 51°16.305 2°54.138 15.0565 3.378575 26.633972 -3.020363
2011-10-17 07:29:03 51°16.305 2°54.137 15.0599 3.590385 28.490511 -3.020363
2011-10-17 07:29:08 51°16.305 2°54.136 15.0629 3.349078 26.376194 -3.020363
2011-10-17 07:29:13 51°16.305 2°54.135 15.063 3.621864 28.766632 -3.020363
2011-10-17 07:29:17 51°16.305 2°54.134 15.0701 3.352079 26.402908 -3.020363
2011-10-17 07:29:23 51°16.305 2°54.133 15.0744 3.352079 26.402908 -3.020363
2011-10-17 07:29:28 51°16.305 2°54.132 15.0767 3.539546 28.04339 -3.020363
2011-10-17 07:29:33 51°16.305 2°54.131 15.0771 3.521842 27.888494 -3.020363
2011-10-17 07:29:38 51°16.305 2°54.13 15.083 3.569573 28.306757 -3.020363
2011-10-17 07:29:43 51°16.305 2°54.129 15.0851 3.609956 28.660472 -3.020363
2011-10-17 07:29:48 51°16.306 2°54.128 15.0783 3.52588 27.919829 -3.020363
2011-10-17 07:29:53 51°16.306 2°54.127 15.0721 3.52588 27.919829 -3.020363
2011-10-17 07:29:57 51°16.306 2°54.126 15.0674 3.472149 27.445754 -3.020363
2011-10-17 07:30:03 51°16.306 2°54.125 15.0618 3.517804 27.84308 -3.020363
2011-10-17 07:30:08 51°16.306 2°54.124 15.0635 3.583137 28.415331 -3.020363
2011-10-17 07:30:13 51°16.306 2°54.123 15.0603 3.458277 27.316818 -3.020363
2011-10-17 07:30:18 51°16.306 2°54.122 15.0595 3.615755 28.698268 -3.020363
2011-10-17 07:30:23 51°16.306 2°54.121 15.0594 3.615755 28.698268 -3.020363
2011-10-17 07:30:28 51°16.306 2°54.12 15.0596 3.484779 27.547702 -3.020363
2011-10-17 07:30:33 51°16.306 2°54.12 15.0573 3.569573 28.293048 -3.020363
2011-10-17 07:30:37 51°16.306 2°54.119 15.056 3.566259 28.266895 -3.020363
2011-10-17 07:30:43 51°16.306 2°54.118 15.0526 3.449168 27.242276 -3.020363
2011-10-17 07:30:48 51°16.306 2°54.117 15.0486 3.49627 27.655962 -3.020363
2011-10-17 07:30:53 51°16.306 2°54.117 15.0443 3.49627 27.655962 -3.020363
2011-10-17 07:30:57 51°16.306 2°54.116 15.0467 3.545862 28.092375 -3.020363
2011-10-17 07:31:03 51°16.306 2°54.115 15.0479 3.454137 27.289201 -3.020363
2011-10-17 07:31:08 51°16.306 2°54.114 15.0526 3.477739 27.495879 -3.020363
2011-10-17 07:31:13 51°16.306 2°54.114 15.0524 3.552489 28.154159 -3.020363
2011-10-17 07:31:17 51°16.306 2°54.113 15.0563 3.592974 28.512102 -3.020363
2011-10-17 07:31:23 51°16.306 2°54.112 15.0563 3.592974 28.512102 -3.020363
2011-10-17 07:31:28 51°16.306 2°54.112 15.0562 3.465731 27.397045 -3.020363
2011-10-17 07:31:33 51°16.306 2°54.111 15.054 3.502275 27.719117 -3.020363
2011-10-17 07:31:38 51°16.306 2°54.11 15.0522 3.506623 27.757266 -3.020363
2011-10-17 07:31:43 51°16.306 2°54.11 15.0524 3.425463 27.046368 -3.020363
2011-10-17 07:31:48 51°16.306 2°54.109 15.0545 3.47422 27.471986 -3.020363
2011-10-17 07:31:53 51°16.306 2°54.108 15.0509 3.47422 27.471986 -3.020363
2011-10-17 07:31:58 51°16.306 2°54.107 15.0531 3.517701 27.852141 -3.020363
2011-10-17 07:32:03 51°16.306 2°54.107 15.0536 3.480328 27.523191 -3.020363
2011-10-17 07:32:08 51°16.306 2°54.106 15.0555 3.558287 28.207504 -3.020363
2011-10-17 07:32:13 51°16.306 2°54.105 15.059 3.361601 26.485915 -3.020363
2011-10-17 07:32:18 51°16.306 2°54.105 15.0618 3.529297 27.953948 -3.020363
2011-10-17 07:32:23 51°16.306 2°54.104 15.0633 3.529297 27.953948 -3.020363
2011-10-17 07:32:28 51°16.306 2°54.103 15.0672 3.470079 27.43513 -3.020363
2011-10-17 07:32:33 51°16.306 2°54.103 15.0712 3.464282 27.384352 -3.020363
2011-10-17 07:32:37 51°16.306 2°54.102 15.0707 3.487678 27.589357 -3.020363
2011-10-17 07:32:43 51°16.305 2°54.102 15.0735 3.425463 27.04409 -3.020363
2011-10-17 07:32:48 51°16.305 2°54.101 15.0699 3.593285 28.515438 -3.020363
2011-10-17 07:32:53 51°16.305 2°54.101 15.0691 3.593285 28.515438 -3.020363
2011-10-17 07:32:57 51°16.305 2°54.1 15.0658 3.55632 28.189021 -3.020363
2011-10-17 07:33:03 51°16.305 2°54.1 15.0663 3.592456 28.505142 -3.020363
2011-10-17 07:33:08 51°16.305 2°54.099 15.0658 3.475876 27.479555 -3.020363
2011-10-17 07:33:13 51°16.305 2°54.098 15.0693 3.345041 26.334925 -3.020363
2011-10-17 07:33:17 51°16.305 2°54.098 15.0716 3.551142 28.136403 -3.020363
2011-10-17 07:33:22 51°16.305 2°54.097 15.0707 3.551142 28.136403 -3.020363
2011-10-17 07:33:28 51°16.305 2°54.097 15.0735 3.530849 27.958164 -3.020363
2011-10-17 07:33:33 51°16.305 2°54.096 15.071 3.181029 24.909693 -3.020363
2011-10-17 07:33:38 51°16.305 2°54.095 15.0693 3.41563 26.949618 -3.020363
2011-10-17 07:33:43 51°16.304 2°54.095 15.0646 3.600222 28.56871 -3.020363
2011-10-17 07:33:48 51°16.304 2°54.094 15.0602 3.484468 27.55194 -3.020363
2011-10-17 07:33:53 51°16.304 2°54.094 15.061 3.484468 27.55194 -3.020363
2011-10-17 07:33:57 51°16.304 2°54.093 15.0598 3.485297 27.558617 -3.020363
2011-10-17 07:34:03 51°16.304 2°54.093 15.0579 3.593595 28.509164 -3.020363
2011-10-17 07:34:08 51°16.304 2°54.092 15.0538 3.430018 27.073655 -3.020363
2011-10-17 07:34:13 51°16.303 2°54.092 15.0535 3.513663 27.806746 -3.020363
2011-10-17 07:34:18 51°16.302 2°54.091 15.0577 3.531885 27.967843 -3.020363
2011-10-17 07:34:23 51°16.301 2°54.091 15.0613 3.531885 27.967843 -3.020363
2011-10-17 07:34:28 51°16.299 2°54.09 15.0526 3.446166 27.218305 -3.020363
2011-10-17 07:34:33 51°16.297 2°54.09 15.0409 3.596287 28.537071 -3.020363
2011-10-17 07:34:38 51°16.294 2°54.089 15.0354 3.591006 28.491779 -3.020363
2011-10-17 07:34:43 51°16.29 2°54.089 15.0341 3.47101 27.439825 -3.020363
2011-10-17 07:34:48 51°16.287 2°54.087 15.0333 3.420805 27.001661 -3.020363
2011-10-17 07:34:54 51°16.282 2°54.086 15.0305 3.420805 27.001661 -3.020363
2011-10-17 07:35:00 51°16.276 2°54.084 15.0322 3.499687 27.69233 -3.020363
2011-10-17 07:35:05 51°16.272 2°54.081 15.0305 3.510143 27.785227 -3.020363
2011-10-17 07:35:11 51°16.266 2°54.078 15.0301 3.576407 28.369867 -3.020363
2011-10-17 07:35:16 51°16.261 2°54.075 15.0293 3.4707 27.445774 -3.020363
2011-10-17 07:35:21 51°16.256 2°54.072 15.0293 3.50507 27.75124 -3.020363
2011-10-17 07:35:26 51°16.25 2°54.068 15.0285 3.50507 27.75124 -3.020363
2011-10-17 07:35:31 51°16.245 2°54.064 15.0318 3.530539 27.976646 -3.020363
2011-10-17 07:35:36 51°16.239 2°54.06 15.0314 3.483641 27.566738 -3.020363
2011-10-17 07:35:41 51°16.234 2°54.055 15.0315 3.568434 28.313441 -3.020363
2011-10-17 07:35:46 51°16.229 2°54.05 15.0361 3.358496 26.475006 -3.020363
2011-10-17 07:35:51 51°16.224 2°54.045 15.037 3.583759 28.450158 -3.020363
2011-10-17 07:35:56 51°16.22 2°54.041 15.0344 3.583759 28.450158 -3.020363
2011-10-17 07:36:01 51°16.216 2°54.036 15.0341 3.530746 27.984953 -3.020363
2011-10-17 07:36:06 51°16.213 2°54.032 15.033 3.386338 26.719721 -3.020363
2011-10-17 07:36:11 51°16.21 2°54.028 15.0362 3.551143 28.164281 -3.020363
2011-10-17 07:36:16 51°16.208 2°54.025 15.0347 3.502068 27.73249 -3.020363
2011-10-17 07:36:21 51°16.206 2°54.022 15.0363 3.402588 26.860012 -3.020363
2011-10-17 07:36:25 51°16.205 2°54.021 15.0359 3.402588 26.860012 -3.020363
2011-10-17 07:36:30 51°16.204 2°54.019 15.0398 3.569677 28.324974 -3.020363
2011-10-17 07:36:35 51°16.204 2°54.019 15.0388 3.574129 28.363568 -3.020363
2011-10-17 07:36:40 51°16.204 2°54.02 15.0408 3.574647 28.368724 -3.020363
2011-10-17 07:36:45 51°16.203 2°54.021 15.0392 3.487574 27.603566 -3.020363
2011-10-17 07:36:49 51°16.203 2°54.024 15.0387 3.423186 27.038983 -3.020363
2011-10-17 07:36:54 51°16.203 2°54.027 15.0378 3.423186 27.038983 -3.020363
2011-10-17 07:36:59 51°16.203 2°54.032 15.0388 3.511593 27.813764 -3.020363
2011-10-17 07:37:04 51°16.202 2°54.038 15.0383 3.511075 27.808633 -3.020363
2011-10-17 07:37:09 51°16.202 2°54.045 15.038 3.46511 27.40488 -3.020363
2011-10-17 07:37:13 51°16.202 2°54.052 15.0377 3.557459 28.215082 -3.020363
2011-10-17 07:37:17 51°16.201 2°54.059 15.0392 3.401863 26.850285 -3.020363
2011-10-17 07:37:23 51°16.202 2°54.07 15.0382 3.401863 26.850285 -3.020363
2011-10-17 07:37:28 51°16.202 2°54.08 15.0374 3.443578 27.215145 -3.020363
2011-10-17 07:37:33 51°16.203 2°54.091 15.0385 3.518115 27.868691 -3.020363
2011-10-17 07:37:37 51°16.204 2°54.099 15.0389 3.49213 27.640612 -3.020363
2011-10-17 07:37:43 51°16.207 2°54.113 15.0372 3.559633 28.233615 -3.020363
2011-10-17 07:37:48 51°16.209 2°54.124 15.0385 3.418839 26.999251 -3.020363
2011-10-17 07:37:53 51°16.212 2°54.136 15.0376 3.418839 26.999251 -3.020363
2011-10-17 07:37:58 51°16.215 2°54.148 15.0392 3.424014 27.043948 -3.020363
2011-10-17 07:38:03 51°16.218 2°54.16 15.0372 3.528365 27.959311 -3.020363
2011-10-17 07:38:08 51°16.221 2°54.173 15.0374 3.481467 27.547675 -3.020363
2011-10-17 07:38:13 51°16.225 2°54.185 15.0378 3.496167 27.676034 -3.020363
2011-10-17 07:38:17 51°16.227 2°54.195 15.0367 3.554042 28.185028 -3.020363
2011-10-17 07:38:22 51°16.231 2°54.208 15.0359 3.554042 28.185028 -3.020363
2011-10-17 07:38:28 51°16.235 2°54.224 15.037 3.471839 27.463272 -3.020363
2011-10-17 07:38:33 51°16.238 2°54.238 15.0337 3.578064 28.396413 -3.020363
2011-10-17 07:38:38 51°16.241 2°54.252 15.0338 3.522256 27.905062 -3.020363
2011-10-17 07:38:43 51°16.244 2°54.265 15.0326 3.565949 28.289185 -3.020363
2011-10-17 07:38:48 51°16.246 2°54.277 15.0316 3.557873 28.218131 -3.020363
2011-10-17 07:38:53 51°16.249 2°54.289 15.0301 3.557873 28.218131 -3.020363
2011-10-17 07:38:57 51°16.251 2°54.298 15.0282 3.441094 27.193398 -3.020363
2011-10-17 07:39:03 51°16.255 2°54.31 15.0284 3.522671 27.9087 -3.020363
2011-10-17 07:39:08 51°16.259 2°54.318 15.027 3.492233 27.641521 -3.020363
2011-10-17 07:39:13 51°16.263 2°54.325 15.0287 3.374538 26.61276 -3.020363
2011-10-17 07:39:18 51°16.267 2°54.331 15.0273 3.540996 28.070909 -3.020363
2011-10-17 07:39:23 51°16.271 2°54.335 15.0291 3.540996 28.070909 -3.020363
2011-10-17 07:39:28 51°16.276 2°54.339 15.0278 3.439955 27.186295 -3.020363
2011-10-17 07:39:33 51°16.279 2°54.342 15.0267 3.555388 28.200434 -3.020363
2011-10-17 07:39:38 51°16.283 2°54.344 15.0273 3.539029 28.057757 -3.020363
2011-10-17 07:39:43 51°16.285 2°54.345 15.0259 3.548451 28.14179 -3.020363
2011-10-17 07:39:48 51°16.287 2°54.345 15.0253 3.477636 27.52047 -3.020363
2011-10-17 07:39:53 51°16.287 2°54.345 15.025 3.477636 27.52047 -3.020363
2011-10-17 07:39:57 51°16.287 2°54.344 15.0245 3.495132 27.673949 -3.020363
2011-10-17 07:40:03 51°16.286 2°54.343 15.0224 3.53934 28.062262 -3.020363
2011-10-17 07:40:08 51°16.286 2°54.342 15.0237 3.525984 27.945459 -3.020363
2011-10-17 07:40:13 51°16.285 2°54.341 15.024 3.55456 28.196119 -3.020363
2011-10-17 07:40:17 51°16.285 2°54.34 15.0225 3.410351 26.931846 -3.020363
2011-10-17 07:40:23 51°16.284 2°54.339 15.0221 3.410351 26.931846 -3.020363
2011-10-17 07:40:28 51°16.284 2°54.338 15.0208 3.538719 28.057984 -3.020363
2011-10-17 07:40:33 51°16.284 2°54.337 15.0222 3.36512 26.53783 -3.020363
2011-10-17 07:40:38 51°16.283 2°54.336 15.0226 3.507348 27.784111 -3.020363
2011-10-17 07:40:43 51°16.283 2°54.335 15.0232 3.522981 27.920844 -3.020363
2011-10-17 07:40:48 51°16.282 2°54.334 15.0212 3.469665 27.453475 -3.020363
2011-10-17 07:40:53 51°16.282 2°54.333 15.023 3.469665 27.453475 -3.020363
2011-10-17 07:40:57 51°16.282 2°54.333 15.0206 3.422565 27.041527 -3.020363
2011-10-17 07:41:03 51°16.281 2°54.331 15.0201 3.531057 27.993584 -3.020363
2011-10-17 07:41:08 51°16.281 2°54.33 15.0202 3.418528 27.006777 -3.020363
2011-10-17 07:41:13 51°16.281 2°54.33 15.0215 3.496167 27.68712 -3.020363
2011-10-17 07:41:18 51°16.281 2°54.329 15.0203 3.382819 26.695172 -3.020363
2011-10-17 07:41:23 51°16.28 2°54.328 15.0212 3.382819 26.695172 -3.020363
2011-10-17 07:41:28 51°16.28 2°54.327 15.0207 3.500412 27.724964 -3.020363
2011-10-17 07:41:33 51°16.279 2°54.326 15.0208 3.504967 27.764959 -3.020363
2011-10-17 07:41:37 51°16.279 2°54.326 15.021 3.549176 28.153507 -3.020363
2011-10-17 07:41:43 51°16.279 2°54.325 15.0223 3.404141 26.882079 -3.020363
2011-10-17 07:41:48 51°16.279 2°54.324 15.0207 3.548244 28.145903 -3.020363
2011-10-17 07:41:53 51°16.278 2°54.323 15.0215 3.548244 28.145903 -3.020363
2011-10-17 07:41:57 51°16.278 2°54.323 15.0238 3.395239 26.804263 -3.020363
2011-10-17 07:42:03 51°16.278 2°54.322 15.022 3.438403 27.181867 -3.020363
2011-10-17 07:42:08 51°16.277 2°54.321 15.0226 3.532714 28.009327 -3.020363
2011-10-17 07:42:13 51°16.277 2°54.32 15.0233 3.48333 27.575638 -3.020363
2011-10-17 07:42:17 51°16.277 2°54.32 15.0235 3.515009 27.853157 -3.020363